KC8P Weather Reports


Display with metric or nautical units.
time (UTC)temp
F
wind
direction
speed
MPH
gust
MPH
rain 1hr
in
rain 24hr
in
rain mn
in
humidity
%
barometer
mb
20260506185229 51 262 0.0 7.0 0.00 0.00 0.00 51 1012.4
20260506185129 51 278 0.0 7.0 0.00 0.00 0.00 52 1012.4
20260506185123 51 277 0.0 7.0 0.00 0.00 0.00 52 1012.4
20260506185017 51 288 3.0 7.0 0.00 0.00 0.00 51 1012.1
20260506184911 51 305 1.0 4.0 0.00 0.00 0.00 50 1012.4
20260506184805 51 252 1.0 4.0 0.00 0.00 0.00 51 1012.4
20260506184659 51 318 0.0 4.0 0.00 0.00 0.00 51 1012.4
20260506184621 50 289 1.0 4.0 0.00 0.00 0.00 52 1012.1
20260506184553 50 286 1.0 4.0 0.00 0.00 0.00 52 1012.1
20260506184447 51 303 2.0 4.0 0.00 0.00 0.00 50 1012.4
20260506184341 51 330 2.0 4.0 0.00 0.00 0.00 50 1012.4
20260506184236 51 147 1.0 3.0 0.00 0.00 0.00 52 1012.4
20260506184130 51 329 0.0 3.0 0.00 0.00 0.00 52 1012.4
20260506184115 51 327 0.0 3.0 0.00 0.00 0.00 51 1012.4
20260506184024 51 320 0.0 3.0 0.00 0.00 0.00 52 1012.4
20260506183918 51 225 0.0 3.0 0.00 0.00 0.00 54 1012.4
20260506183813 50 151 1.0 3.0 0.00 0.00 0.00 54 1012.1
20260506183707 50 333 1.0 3.0 0.00 0.00 0.00 52 1012.4
20260506183608 50 269 0.0 3.0 0.00 0.00 0.00 53 1012.4
20260506183601 50 328 1.0 3.0 0.00 0.00 0.00 53 1012.4
20260506183454 50 348 2.0 3.0 0.00 0.00 0.00 53 1012.4
20260506183348 50 338 3.0 3.0 0.00 0.00 0.00 52 1012.4
20260506183243 51 332 2.0 3.0 0.00 0.00 0.00 51 1012.1
20260506183138 51 332 3.0 3.0 0.00 0.00 0.00 53 1012.4
20260506183100 51 327 2.0 3.0 0.00 0.00 0.00 51 1012.4
20260506183032 52 288 1.0 3.0 0.00 0.00 0.00 51 1012.4
20260506182927 52 256 2.0 3.0 0.00 0.00 0.00 51 1012.4
20260506182821 51 146 0.0 4.0 0.00 0.00 0.00 52 1012.4
20260506182716 51 332 1.0 6.0 0.00 0.00 0.00 50 1012.4
20260506182609 51 310 1.0 6.0 0.00 0.00 0.00 52 1012.4
20260506182554 51 310 1.0 6.0 0.00 0.00 0.00 52 1012.4
20260506182504 51 323 2.0 6.0 0.00 0.00 0.00 51 1012.4
20260506182358 51 209 0.0 6.0 0.00 0.00 0.00 52 1012.4
20260506182253 51 128 0.0 6.0 0.00 0.00 0.00 52 1012.4
20260506182148 51 266 0.0 6.0 0.00 0.00 0.00 53 1012.4
20260506182042 51 266 2.0 6.0 0.00 0.00 0.00 54 1012.4
20260506181936 51 261 1.0 6.0 0.00 0.00 0.00 53 1012.4
20260506181831 51 203 2.0 6.0 0.00 0.00 0.00 53 1012.4
20260506181725 51 273 2.0 3.0 0.00 0.00 0.00 53 1012.4
20260506181618 51 256 2.0 6.0 0.00 0.00 0.00 52 1012.4
20260506181541 51 303 2.0 6.0 0.00 0.00 0.00 52 1012.4
20260506181513 52 330 0.0 6.0 0.00 0.00 0.00 51 1012.4
20260506181406 53 312 0.0 6.0 0.00 0.00 0.00 50 1012.4
20260506181301 53 323 0.0 6.0 0.00 0.00 0.00 53 1012.4
20260506181155 52 3 0.0 6.0 0.00 0.00 0.00 52 1012.4
20260506181050 52 243 2.0 6.0 0.00 0.00 0.00 55 1012.4
20260506181034 51 235 1.0 6.0 0.00 0.00 0.00 54 1012.4
20260506180944 51 139 1.0 6.0 0.00 0.00 0.00 55 1012.4
20260506180839 51 99 0.0 6.0 0.00 0.00 0.00 54 1012.4
20260506180733 52 343 0.0 6.0 0.00 0.00 0.00 53 1012.4
20260506180627 52 328 4.0 7.0 0.00 0.00 0.00 53 1012.4
20260506180526 51 84 0.0 7.0 0.00 0.00 0.00 55 1012.4
20260506180521 51 64 1.0 7.0 0.00 0.00 0.00 55 1012.4
20260506180414 51 37 1.0 7.0 0.00 0.00 0.00 54 1012.4
20260506180310 50 349 0.0 7.0 0.00 0.00 0.00 54 1012.4
20260506180203 50 351 1.0 7.0 0.00 0.00 0.00 55 1012.4
20260506180111 50 32 2.0 7.0 0.00 0.00 0.00 55 1012.4
20260506180020 50 19 0.0 7.0 0.00 0.00 0.00 56 1012.8
20260506175952 49 343 0.0 7.0 0.00 0.00 0.00 57 1012.8
20260506175847 49 299 1.0 7.0 0.00 0.00 0.00 57 1012.8
20260506175741 49 311 1.0 7.0 0.00 0.00 0.00 56 1012.8
20260506175635 49 337 3.0 7.0 0.00 0.00 0.00 58 1012.8
20260506175514 49 33 0.0 7.0 0.00 0.00 0.00 57 1012.8
20260506175425 49 285 2.0 7.0 0.00 0.00 0.00 57 1012.8
20260506175319 49 297 0.0 7.0 0.00 0.00 0.00 56 1012.4
20260506175212 49 338 0.0 7.0 0.00 0.00 0.00 56 1012.8
20260506175106 49 330 2.0 9.0 0.00 0.00 0.00 57 1012.8
20260506175007 49 281 2.0 9.0 0.00 0.00 0.00 56 1012.8
20260506175001 49 281 2.0 9.0 0.00 0.00 0.00 56 1012.8
20260506174854 49 336 2.0 9.0 0.00 0.00 0.00 57 1012.8
20260506174749 49 298 2.0 9.0 0.00 0.00 0.00 56 1012.8
20260506174643 49 319 3.0 9.0 0.00 0.00 0.00 56 1012.8
20260506174538 49 332 0.0 9.0 0.00 0.00 0.00 55 1012.8
20260506174500 49 305 0.0 9.0 0.00 0.00 0.00 56 1012.8
20260506174432 49 14 0.0 9.0 0.00 0.00 0.00 56 1012.8
20260506174327 49 289 0.0 9.0 0.00 0.00 0.00 55 1012.4
20260506174221 49 340 2.0 9.0 0.00 0.00 0.00 55 1012.4
20260506174116 49 347 3.0 8.0 0.00 0.00 0.00 55 1012.8
20260506174011 49 236 1.0 8.0 0.00 0.00 0.00 55 1012.8
20260506173954 49 288 1.0 8.0 0.00 0.00 0.00 54 1012.8
20260506173905 49 3 4.0 8.0 0.00 0.00 0.00 54 1012.8
20260506173759 49 323 4.0 8.0 0.00 0.00 0.00 54 1012.8
20260506173653 49 356 3.0 8.0 0.00 0.00 0.00 56 1012.4
20260506173548 49 330 0.0 8.0 0.00 0.00 0.00 54 1012.4
20260506173449 49 328 4.0 8.0 0.00 0.00 0.00 53 1012.8
20260506173442 50 339 2.0 7.0 0.00 0.00 0.00 53 1012.8
20260506173336 50 338 2.0 7.0 0.00 0.00 0.00 54 1012.4
20260506173230 51 343 1.0 7.0 0.00 0.00 0.00 52 1012.4
20260506173126 51 71 0.0 7.0 0.00 0.00 0.00 52 1012.8
20260506173019 52 246 0.0 7.0 0.00 0.00 0.00 52 1012.4
20260506172941 52 299 4.0 7.0 0.00 0.00 0.00 51 1012.4
20260506172913 52 310 0.0 7.0 0.00 0.00 0.00 52 1012.8
20260506172808 52 233 1.0 7.0 0.00 0.00 0.00 53 1012.4
20260506172702 51 312 2.0 7.0 0.00 0.00 0.00 55 1012.8
20260506172556 50 298 0.0 7.0 0.00 0.00 0.00 54 1012.4
20260506172450 50 349 0.0 7.0 0.00 0.00 0.00 55 1012.8
20260506172434 50 349 0.0 7.0 0.00 0.00 0.00 55 1012.4
20260506172344 50 252 0.0 7.0 0.00 0.00 0.00 54 1012.4
20260506172239 50 289 0.0 7.0 0.00 0.00 0.00 54 1012.8
20260506172132 50 261 1.0 7.0 0.00 0.00 0.00 54 1012.4
20260506172106 49 342 1.0 7.0 0.00 0.00 0.00 54 1012.4
20260506172102 50 296 3.0 4.0 0.00 0.00 0.00 53 1012.4
20260506172057 51 302 2.0 7.0 0.00 0.00 0.00 51 1012.4
20260506172053 51 357 2.0 10.0 0.00 0.00 0.00 49 1012.4
20260506172047 50 298 1.0 7.0 0.00 0.00 0.00 54 1012.4
20260506172032 50 312 1.0 7.0 0.00 0.00 0.00 55 1012.4
20260506172023 50 291 1.0 7.0 0.00 0.00 0.00 54 1012.4
20260506171804 51 320 2.0 6.0 0.00 0.00 0.00 53 1012.8
20260506171755 51 325 1.0 6.0 0.00 0.00 0.00 53 1012.4
20260506171532 51 73 1.0 6.0 0.00 0.00 0.00 53 1012.4
20260506171509 51 316 2.0 6.0 0.00 0.00 0.00 53 1012.4
20260506171504 51 342 2.0 6.0 0.00 0.00 0.00 53 1012.4
20260506171456 51 61 0.0 6.0 0.00 0.00 0.00 53 1012.4
20260506171231 51 323 0.0 6.0 0.00 0.00 0.00 55 1012.4
20260506171222 50 14 1.0 7.0 0.00 0.00 0.00 56 1012.4
20260506170957 50 308 2.0 7.0 0.00 0.00 0.00 55 1012.4
20260506170946 49 310 1.0 7.0 0.00 0.00 0.00 57 1012.4
20260506170942 49 276 1.0 7.0 0.00 0.00 0.00 56 1012.4
20260506170933 49 9 0.0 7.0 0.00 0.00 0.00 55 1012.4
20260506170710 49 342 0.0 7.0 0.00 0.00 0.00 54 1012.4
20260506170701 49 348 0.0 7.0 0.00 0.00 0.00 54 1012.4
20260506170436 49 330 1.0 8.0 0.00 0.00 0.00 54 1012.4
20260506170428 49 288 4.0 8.0 0.00 0.00 0.00 54 1012.4
20260506170159 50 247 3.0 8.0 0.00 0.00 0.00 53 1012.8
20260506170151 50 348 4.0 8.0 0.00 0.00 0.00 53 1012.4
20260506170142 50 354 0.0 8.0 0.00 0.00 0.00 53 1012.4
20260506165916 50 297 0.0 8.0 0.00 0.00 0.00 53 1012.4
20260506165912 50 250 1.0 8.0 0.00 0.00 0.00 53 1012.4
20260506165903 50 317 2.0 8.0 0.00 0.00 0.00 53 1012.8
20260506165639 49 356 0.0 8.0 0.00 0.00 0.00 53 1012.4
20260506165630 49 352 2.0 8.0 0.00 0.00 0.00 53 1012.4
20260506165621 50 296 3.0 4.0 0.00 0.00 0.00 53 1012.4
20260506165359 50 304 1.0 4.0 0.00 0.00 0.00 54 1012.4
20260506165351 50 238 0.0 4.0 0.00 0.00 0.00 54 1012.4
20260506165131 50 71 1.0 3.0 0.00 0.00 0.00 54 1012.4
20260506165122 50 297 0.0 3.0 0.00 0.00 0.00 53 1012.4
20260506164901 50 212 0.0 7.0 0.00 0.00 0.00 54 1012.4
20260506164857 50 227 1.0 7.0 0.00 0.00 0.00 54 1012.4
20260506164848 50 254 0.0 7.0 0.00 0.00 0.00 53 1012.4
20260506164839 51 198 0.0 7.0 0.00 0.00 0.00 52 1012.4
20260506164616 51 340 0.0 7.0 0.00 0.00 0.00 50 1012.4
20260506164607 51 270 0.0 7.0 0.00 0.00 0.00 52 1012.4
20260506164345 51 310 2.0 7.0 0.00 0.00 0.00 49 1012.4
20260506164336 51 278 0.0 10.0 0.00 0.00 0.00 52 1012.4
20260506164113 51 303 0.0 10.0 0.00 0.00 0.00 49 1012.4
20260506164104 51 317 0.0 10.0 0.00 0.00 0.00 50 1012.4
20260506164056 51 328 3.0 10.0 0.00 0.00 0.00 50 1012.4
20260506163749 51 45 2.0 10.0 0.00 0.00 0.00 50 1012.4
20260506163643 51 340 1.0 10.0 0.00 0.00 0.00 50 1012.4
20260506163537 51 314 2.0 10.0 0.00 0.00 0.00 51 1012.4
20260506163432 51 344 0.0 10.0 0.00 0.00 0.00 52 1012.4
20260506163327 51 322 0.0 10.0 0.00 0.00 0.00 55 1012.4
20260506163221 52 225 0.0 6.0 0.00 0.00 0.00 52 1012.4
20260506163115 53 261 3.0 6.0 0.00 0.00 0.00 52 1012.4
20260506163009 52 285 1.0 6.0 0.00 0.00 0.00 52 1012.4
20260506162904 52 304 1.0 6.0 0.00 0.00 0.00 51 1012.8
20260506162826 52 341 0.0 6.0 0.00 0.00 0.00 51 1012.4
20260506162758 52 175 2.0 6.0 0.00 0.00 0.00 51 1012.4
20260506162652 52 263 3.0 6.0 0.00 0.00 0.00 53 1012.4
20260506162547 52 317 0.0 6.0 0.00 0.00 0.00 52 1012.4
20260506162441 52 353 0.0 6.0 0.00 0.00 0.00 51 1012.4
20260506162336 51 309 2.0 6.0 0.00 0.00 0.00 51 1012.4
20260506162319 51 48 2.0 6.0 0.00 0.00 0.00 52 1012.4
20260506162229 51 268 0.0 6.0 0.00 0.00 0.00 53 1012.4
20260506162136 51 325 0.0 6.0 0.00 0.00 0.00 53 1012.4
20260506162021 51 246 1.0 6.0 0.00 0.00 0.00 53 1012.4
20260506161925 51 247 2.0 9.0 0.00 0.00 0.00 56 1012.4
20260506161813 51 248 0.0 9.0 0.00 0.00 0.00 54 1012.4
20260506161807 51 268 4.0 9.0 0.00 0.00 0.00 53 1012.4
20260506161704 51 80 2.0 9.0 0.00 0.00 0.00 53 1012.4
20260506161555 51 285 1.0 10.0 0.00 0.00 0.00 53 1012.4
20260506161451 51 221 2.0 10.0 0.00 0.00 0.00 53 1012.4
20260506161345 50 205 3.0 10.0 0.00 0.00 0.00 52 1012.4
20260506161306 50 225 3.0 10.0 0.00 0.00 0.00 52 1012.4
20260506161239 50 174 4.0 10.0 0.00 0.00 0.00 53 1012.4
20260506161146 50 271 2.0 10.0 0.00 0.00 0.00 53 1012.4
20260506161041 51 255 0.0 10.0 0.00 0.00 0.00 52 1012.1
20260506160922 51 300 4.0 10.0 0.00 0.00 0.00 53 1012.4
20260506160800 51 297 0.0 10.0 0.00 0.00 0.00 53 1012.4
20260506160710 52 293 3.0 10.0 0.00 0.00 0.00 54 1012.4
20260506160606 52 258 6.0 9.0 0.00 0.00 0.00 50 1012.4
20260506160459 52 242 2.0 6.0 0.00 0.00 0.00 53 1012.4
20260506160354 52 205 2.0 6.0 0.00 0.00 0.00 52 1012.4
20260506160248 52 330 4.0 6.0 0.00 0.00 0.00 53 1012.4
20260506160156 51 168 1.0 4.0 0.00 0.00 0.00 53 1012.1
20260506160050 52 16 1.0 4.0 0.00 0.00 0.00 53 1012.4
20260506155931 52 325 2.0 4.0 0.00 0.00 0.00 52 1012.4
20260506155825 52 355 2.0 4.0 0.00 0.00 0.00 56 1012.1
20260506155748 52 79 0.0 4.0 0.00 0.00 0.00 56 1012.1
20260506155719 52 204 1.0 4.0 0.00 0.00 0.00 55 1012.1
20260506155614 52 245 2.0 3.0 0.00 0.00 0.00 55 1012.4
20260506155508 52 225 2.0 6.0 0.00 0.00 0.00 56 1012.4
20260506155403 52 283 2.0 6.0 0.00 0.00 0.00 56 1012.4
20260506155256 52 272 1.0 6.0 0.00 0.00 0.00 56 1012.4
20260506155241 52 303 1.0 6.0 0.00 0.00 0.00 56 1012.4
20260506155151 52 333 2.0 6.0 0.00 0.00 0.00 54 1012.4
20260506155044 51 75 2.0 6.0 0.00 0.00 0.00 55 1012.1
20260506154940 51 142 0.0 6.0 0.00 0.00 0.00 56 1012.1
20260506154835 51 101 1.0 6.0 0.00 0.00 0.00 55 1012.1
20260506154735 51 46 3.0 6.0 0.00 0.00 0.00 54 1012.1
20260506154728 51 14 2.0 6.0 0.00 0.00 0.00 56 1012.1
20260506154622 51 80 0.0 6.0 0.00 0.00 0.00 56 1012.4
20260506154517 51 287 2.0 6.0 0.00 0.00 0.00 55 1012.1
20260506154412 50 221 1.0 4.0 0.00 0.00 0.00 58 1012.4
20260506154305 49 131 0.0 4.0 0.00 0.00 0.00 59 1012.4
20260506154228 49 126 1.0 4.0 0.00 0.00 0.00 59 1012.1
20260506154200 49 120 2.0 4.0 0.00 0.00 0.00 58 1012.1
20260506154055 50 151 2.0 4.0 0.00 0.00 0.00 57 1012.1
20260506153948 50 109 0.0 4.0 0.00 0.00 0.00 57 1012.4
20260506153843 50 331 2.0 4.0 0.00 0.00 0.00 59 1012.1
20260506153722 50 311 2.0 4.0 0.00 0.00 0.00 58 1012.1
20260506153631 50 349 3.0 4.0 0.00 0.00 0.00 57 1012.1
20260506153526 50 63 1.0 4.0 0.00 0.00 0.00 58 1012.4
20260506153420 50 334 1.0 4.0 0.00 0.00 0.00 58 1012.4
20260506153314 50 335 3.0 4.0 0.00 0.00 0.00 57 1012.1
20260506153209 50 246 2.0 7.0 0.00 0.00 0.00 59 1012.1
20260506153103 50 226 1.0 7.0 0.00 0.00 0.00 59 1012.4
20260506152958 50 327 1.0 7.0 0.00 0.00 0.00 58 1012.1
20260506152852 50 229 0.0 7.0 0.00 0.00 0.00 58 1012.1
20260506152746 49 227 2.0 7.0 0.00 0.00 0.00 57 1012.1
20260506152709 49 196 1.0 7.0 0.00 0.00 0.00 58 1012.4
20260506152641 49 203 1.0 7.0 0.00 0.00 0.00 58 1012.4
20260506152535 49 125 2.0 7.0 0.00 0.00 0.00 58 1012.1
20260506152429 49 200 2.0 7.0 0.00 0.00 0.00 59 1012.1
20260506152324 50 265 1.0 7.0 0.00 0.00 0.00 57 1012.4
20260506152218 50 350 5.0 7.0 0.00 0.00 0.00 57 1012.1
20260506152203 50 357 0.0 4.0 0.00 0.00 0.00 57 1012.1
20260506152113 50 303 0.0 4.0 0.00 0.00 0.00 58 1012.1
20260506152007 50 334 3.0 4.0 0.00 0.00 0.00 57 1012.1
20260506151901 50 87 2.0 3.0 0.00 0.00 0.00 58 1012.4
20260506151756 50 54 1.0 4.0 0.00 0.00 0.00 58 1012.4
20260506151657 50 325 1.0 4.0 0.00 0.00 0.00 58 1012.4
20260506151650 50 229 0.0 4.0 0.00 0.00 0.00 58 1012.4
20260506151543 50 281 1.0 4.0 0.00 0.00 0.00 60 1012.1
20260506151438 51 39 2.0 4.0 0.00 0.00 0.00 56 1012.1
20260506151332 51 36 3.0 4.0 0.00 0.00 0.00 56 1012.1
20260506151227 51 31 0.0 6.0 0.00 0.00 0.00 55 1012.4
20260506151150 51 38 0.0 6.0 0.00 0.00 0.00 56 1012.4
20260506151122 51 3 1.0 6.0 0.00 0.00 0.00 55 1012.4
20260506151016 52 145 0.0 6.0 0.00 0.00 0.00 55 1012.4
20260506150910 53 211 1.0 6.0 0.00 0.00 0.00 55 1012.1
20260506150805 53 356 2.0 6.0 0.00 0.00 0.00 53 1012.4
20260506150644 52 60 0.0 6.0 0.00 0.00 0.00 55 1012.1
20260506150554 52 52 0.0 6.0 0.00 0.00 0.00 56 1012.4
20260506150448 53 69 2.0 6.0 0.00 0.00 0.00 55 1012.4
20260506150342 53 355 2.0 6.0 0.00 0.00 0.00 53 1012.4
20260506150236 52 357 1.0 2.0 0.00 0.00 0.00 55 1011.8
20260506150137 52 176 0.0 4.0 0.00 0.00 0.00 56 1012.1
20260506150131 52 239 0.0 4.0 0.00 0.00 0.00 56 1012.1
20260506150025 51 209 0.0 4.0 0.00 0.00 0.00 56 1012.1
20260506145919 51 137 1.0 4.0 0.00 0.00 0.00 55 1012.4
20260506145812 50 68 1.0 4.0 0.00 0.00 0.00 58 1012.1
20260506145707 50 65 1.0 4.0 0.00 0.00 0.00 58 1012.1
20260506145629 50 30 2.0 4.0 0.00 0.00 0.00 59 1012.1
20260506145602 50 34 1.0 4.0 0.00 0.00 0.00 58 1012.1
20260506145455 49 203 0.0 4.0 0.00 0.00 0.00 59 1012.1
20260506145348 47 71 1.0 4.0 0.00 0.00 0.00 60 1012.4
20260506145242 47 115 0.0 4.0 0.00 0.00 0.00 61 1012.1
20260506145138 48 148 0.0 3.0 0.00 0.00 0.00 59 1012.1
20260506145121 48 156 0.0 3.0 0.00 0.00 0.00 59 1012.1
20260506145031 48 311 2.0 3.0 0.00 0.00 0.00 59 1012.1
20260506144926 48 290 2.0 4.0 0.00 0.00 0.00 59 1012.1
20260506144821 49 272 1.0 4.0 0.00 0.00 0.00 57 1012.1
20260506144715 49 357 2.0 4.0 0.00 0.00 0.00 55 1011.8
20260506144615 49 35 1.0 4.0 0.00 0.00 0.00 57 1011.8
20260506144609 49 72 1.0 4.0 0.00 0.00 0.00 58 1011.8
20260506144504 48 96 0.0 4.0 0.00 0.00 0.00 59 1011.8
20260506144358 48 11 0.0 4.0 0.00 0.00 0.00 59 1011.8
20260506144252 47 111 0.0 4.0 0.00 0.00 0.00 59 1012.1
20260506144147 47 186 0.0 4.0 0.00 0.00 0.00 59 1012.1
20260506144109 46 329 1.0 4.0 0.00 0.00 0.00 60 1011.8
20260506144042 46 44 1.0 4.0 0.00 0.00 0.00 60 1012.1
20260506143934 46 70 0.0 4.0 0.00 0.00 0.00 61 1012.1
20260506143843 48 330 0.0 4.0 0.00 0.00 0.00 60 1011.8
20260506143723 49 323 2.0 4.0 0.00 0.00 0.00 58 1012.1
20260506143602 49 340 0.0 4.0 0.00 0.00 0.00 58 1012.1
20260506143513 49 15 0.0 4.0 0.00 0.00 0.00 58 1012.1
20260506143407 48 40 2.0 4.0 0.00 0.00 0.00 59 1012.1
20260506143302 48 7 2.0 4.0 0.00 0.00 0.00 58 1011.8
20260506143156 48 335 2.0 4.0 0.00 0.00 0.00 59 1012.1
20260506143050 48 344 0.0 6.0 0.00 0.00 0.00 58 1011.8
20260506142944 47 84 0.0 6.0 0.00 0.00 0.00 59 1011.8
20260506142839 47 43 1.0 6.0 0.00 0.00 0.00 60 1012.1
20260506142733 46 30 1.0 6.0 0.00 0.00 0.00 61 1012.1
20260506142627 46 63 2.0 6.0 0.00 0.00 0.00 62 1012.1
20260506142550 46 301 2.0 6.0 0.00 0.00 0.00 61 1012.1
20260506142521 46 336 3.0 6.0 0.00 0.00 0.00 61 1012.1
20260506142415 47 246 2.0 6.0 0.00 0.00 0.00 61 1012.1
20260506142310 48 50 0.0 6.0 0.00 0.00 0.00 60 1012.1
20260506142204 48 21 4.0 6.0 0.00 0.00 0.00 58 1012.1
20260506142043 48 307 1.0 4.0 0.00 0.00 0.00 60 1012.1
20260506141954 49 98 0.0 4.0 0.00 0.00 0.00 60 1011.8
20260506141848 49 337 0.0 4.0 0.00 0.00 0.00 58 1011.8
20260506141741 49 170 0.0 4.0 0.00 0.00 0.00 60 1012.1
20260506141637 49 124 1.0 4.0 0.00 0.00 0.00 57 1011.8
20260506141535 49 148 0.0 4.0 0.00 0.00 0.00 57 1011.8
20260506141529 49 111 1.0 4.0 0.00 0.00 0.00 57 1011.8
20260506141424 49 69 1.0 4.0 0.00 0.00 0.00 57 1012.1
20260506141318 49 29 0.0 4.0 0.00 0.00 0.00 59 1011.8
20260506141213 49 212 0.0 4.0 0.00 0.00 0.00 59 1012.1
20260506141106 49 340 1.0 4.0 0.00 0.00 0.00 58 1011.8
20260506141029 49 35 0.0 4.0 0.00 0.00 0.00 60 1012.4
20260506141000 49 73 1.0 4.0 0.00 0.00 0.00 58 1012.4
20260506140854 48 102 1.0 4.0 0.00 0.00 0.00 60 1012.1
20260506140750 48 41 2.0 4.0 0.00 0.00 0.00 58 1012.1
20260506140644 48 28 1.0 4.0 0.00 0.00 0.00 59 1011.8
20260506140522 49 40 2.0 4.0 0.00 0.00 0.00 58 1011.8
20260506140432 49 348 2.0 4.0 0.00 0.00 0.00 58 1011.8
20260506140327 49 83 0.0 4.0 0.00 0.00 0.00 59 1011.8
20260506140222 49 108 0.0 4.0 0.00 0.00 0.00 59 1011.8
20260506140115 48 52 2.0 4.0 0.00 0.00 0.00 58 1011.8
20260506140010 48 48 0.0 4.0 0.00 0.00 0.00 60 1012.1
20260506135903 48 40 3.0 4.0 0.00 0.00 0.00 59 1011.8
20260506135805 47 49 1.0 4.0 0.00 0.00 0.00 61 1011.8
20260506135801 48 72 0.0 4.0 0.00 0.00 0.00 60 1011.8
20260506135752 47 87 0.0 4.0 0.00 0.00 0.00 61 1011.8
20260506135743 48 31 1.0 4.0 0.00 0.00 0.00 60 1011.8
20260506135517 48 318 2.0 4.0 0.00 0.00 0.00 59 1011.8
20260506135513 48 82 1.0 4.0 0.00 0.00 0.00 59 1011.8
20260506135504 48 357 1.0 3.0 0.00 0.00 0.00 59 1011.8
20260506135240 47 28 2.0 4.0 0.00 0.00 0.00 60 1011.8
20260506135231 47 73 1.0 4.0 0.00 0.00 0.00 61 1011.4
20260506135223 47 81 2.0 4.0 0.00 0.00 0.00 60 1011.8
20260506135000 45 306 1.0 4.0 0.00 0.00 0.00 62 1011.8
20260506134956 46 68 2.0 4.0 0.00 0.00 0.00 60 1011.8
20260506134947 46 125 0.0 4.0 0.00 0.00 0.00 62 1011.8
20260506134724 45 353 2.0 4.0 0.00 0.00 0.00 62 1011.8
20260506134715 45 13 0.0 4.0 0.00 0.00 0.00 61 1011.8
20260506134450 45 26 2.0 4.0 0.00 0.00 0.00 62 1011.8
20260506134344 45 303 4.0 4.0 0.00 0.00 0.00 61 1011.8
20260506134301 45 8 2.0 4.0 0.00 0.00 0.00 63 1011.8
20260506134252 45 61 2.0 6.0 0.00 0.00 0.00 62 1011.8
20260506134033 46 294 2.0 6.0 0.00 0.00 0.00 62 1011.8
20260506134022 46 313 3.0 6.0 0.00 0.00 0.00 62 1011.8
20260506134018 46 343 1.0 6.0 0.00 0.00 0.00 62 1011.8
20260506134009 45 145 0.0 6.0 0.00 0.00 0.00 63 1011.8
20260506133743 44 75 0.0 6.0 0.00 0.00 0.00 63 1011.8
20260506133735 44 307 3.0 6.0 0.00 0.00 0.00 64 1011.8
20260506133504 44 5 2.0 6.0 0.00 0.00 0.00 65 1011.8
20260506133500 44 334 2.0 6.0 0.00 0.00 0.00 64 1011.8
20260506133451 44 358 2.0 6.0 0.00 0.00 0.00 64 1011.8
20260506133231 45 324 2.0 4.0 0.00 0.00 0.00 64 1011.8
20260506133222 46 310 0.0 4.0 0.00 0.00 0.00 63 1011.8
20260506132953 46 53 2.0 4.0 0.00 0.00 0.00 64 1011.4
20260506132944 46 330 2.0 4.0 0.00 0.00 0.00 64 1011.8
20260506132723 46 347 1.0 4.0 0.00 0.00 0.00 65 1011.8
20260506132714 46 341 2.0 4.0 0.00 0.00 0.00 63 1011.8
20260506132705 46 51 2.0 4.0 0.00 0.00 0.00 64 1011.4
20260506132440 45 78 3.0 4.0 0.00 0.00 0.00 65 1011.4
20260506132435 45 80 1.0 4.0 0.00 0.00 0.00 65 1011.4
20260506132426 46 337 2.0 4.0 0.00 0.00 0.00 64 1011.4
20260506132205 46 331 2.0 4.0 0.00 0.00 0.00 63 1011.4
20260506132156 46 46 1.0 6.0 0.00 0.00 0.00 64 1011.4
20260506132148 46 69 2.0 6.0 0.00 0.00 0.00 64 1011.8
20260506131922 46 54 1.0 6.0 0.00 0.00 0.00 64 1011.8
20260506131918 46 67 1.0 6.0 0.00 0.00 0.00 65 1011.4
20260506131909 46 18 2.0 6.0 0.00 0.00 0.00 64 1011.4
20260506131646 46 79 3.0 6.0 0.00 0.00 0.00 65 1011.8
20260506131637 46 35 2.0 6.0 0.00 0.00 0.00 66 1011.4
20260506131410 45 36 2.0 6.0 0.00 0.00 0.00 67 1011.4
20260506131304 44 62 0.0 6.0 0.00 0.00 0.00 70 1011.4
20260506131157 44 338 3.0 6.0 0.00 0.00 0.00 68 1011.4
20260506131050 44 34 1.0 6.0 0.00 0.00 0.00 68 1011.4
20260506130944 43 60 0.0 6.0 0.00 0.00 0.00 69 1011.4
20260506130907 43 26 2.0 6.0 0.00 0.00 0.00 69 1011.4
20260506130839 43 32 2.0 6.0 0.00 0.00 0.00 69 1011.4
20260506130746 43 66 1.0 6.0 0.00 0.00 0.00 69 1011.4
20260506130640 43 11 4.0 6.0 0.00 0.00 0.00 69 1011.4
20260506130521 43 50 0.0 6.0 0.00 0.00 0.00 69 1011.4
20260506130416 43 351 3.0 6.0 0.00 0.00 0.00 69 1011.1
20260506130401 43 351 3.0 6.0 0.00 0.00 0.00 69 1011.1
20260506130324 44 18 0.0 6.0 0.00 0.00 0.00 69 1011.1
20260506130205 44 337 3.0 6.0 0.00 0.00 0.00 69 1011.1
20260506130112 44 245 2.0 4.0 0.00 0.00 0.00 69 1011.1
20260506125953 44 333 4.0 4.0 0.00 0.00 0.00 69 1011.1
20260506125848 44 36 1.0 4.0 0.00 0.00 0.00 69 1011.1
20260506125743 45 21 3.0 4.0 0.00 0.00 0.00 68 1011.1
20260506125637 45 58 1.0 3.0 0.00 0.00 0.00 68 1010.8
20260506125531 45 13 2.0 3.0 0.00 0.00 0.00 68 1010.8
20260506125426 44 354 0.0 3.0 0.00 0.00 0.00 69 1011.1
20260506125348 44 11 0.0 3.0 0.00 0.00 0.00 69 1011.1
20260506125320 44 13 0.0 3.0 0.00 0.00 0.00 69 1011.1
20260506125213 44 349 1.0 3.0 0.00 0.00 0.00 67 1011.1
20260506125109 44 38 1.0 3.0 0.00 0.00 0.00 68 1011.1
20260506125002 43 28 1.0 3.0 0.00 0.00 0.00 69 1011.1
20260506124858 43 28 2.0 4.0 0.00 0.00 0.00 69 1011.1
20260506124841 43 59 3.0 4.0 0.00 0.00 0.00 68 1011.1
20260506124752 44 3 2.0 6.0 0.00 0.00 0.00 68 1010.8
20260506124647 44 33 1.0 6.0 0.00 0.00 0.00 68 1010.8
20260506124540 43 71 0.0 6.0 0.00 0.00 0.00 71 1011.1
20260506124435 43 82 0.0 6.0 0.00 0.00 0.00 70 1011.1
20260506124335 43 70 0.0 6.0 0.00 0.00 0.00 70 1010.8
20260506124329 43 70 1.0 6.0 0.00 0.00 0.00 70 1010.8
20260506124223 43 84 0.0 6.0 0.00 0.00 0.00 71 1011.1
20260506124118 43 65 0.0 6.0 0.00 0.00 0.00 71 1010.8
20260506124013 43 335 2.0 6.0 0.00 0.00 0.00 70 1010.8
20260506123907 43 65 3.0 6.0 0.00 0.00 0.00 70 1011.1
20260506123829 43 30 2.0 4.0 0.00 0.00 0.00 71 1011.1
20260506123801 43 47 2.0 4.0 0.00 0.00 0.00 71 1011.1
20260506123655 43 349 2.0 4.0 0.00 0.00 0.00 72 1010.8
20260506123549 43 61 2.0 4.0 0.00 0.00 0.00 73 1011.1
20260506123444 42 34 0.0 4.0 0.00 0.00 0.00 74 1011.1
20260506123322 42 339 0.0 7.0 0.00 0.00 0.00 74 1011.1
20260506123233 42 346 1.0 7.0 0.00 0.00 0.00 73 1011.1
20260506123127 42 21 0.0 7.0 0.00 0.00 0.00 73 1010.8
20260506123021 42 339 2.0 8.0 0.00 0.00 0.00 73 1010.8
20260506122916 41 27 1.0 8.0 0.00 0.00 0.00 73 1011.1
20260506122809 41 337 2.0 8.0 0.00 0.00 0.00 73 1011.1
20260506122704 41 349 2.0 8.0 0.00 0.00 0.00 74 1010.8
20260506122558 41 344 1.0 8.0 0.00 0.00 0.00 73 1010.8
20260506122453 41 16 2.0 8.0 0.00 0.00 0.00 73 1010.8
20260506122347 41 342 3.0 8.0 0.00 0.00 0.00 73 1010.8
20260506122310 41 1 0.0 8.0 0.00 0.00 0.00 73 1010.8
20260506122241 41 53 0.0 8.0 0.00 0.00 0.00 73 1010.8
20260506122135 42 357 7.0 8.0 0.00 0.00 0.00 73 1010.8
20260506122030 42 15 1.0 4.0 0.00 0.00 0.00 73 1010.8
20260506121924 42 66 2.0 4.0 0.00 0.00 0.00 73 1010.8
20260506121818 42 358 2.0 4.0 0.00 0.00 0.00 73 1010.8
20260506121803 42 8 3.0 4.0 0.00 0.00 0.00 72 1010.8
20260506121713 42 354 1.0 4.0 0.00 0.00 0.00 73 1010.8
20260506121607 42 28 0.0 4.0 0.00 0.00 0.00 72 1010.8
20260506121501 42 58 0.0 4.0 0.00 0.00 0.00 72 1010.8
20260506121356 42 66 0.0 4.0 0.00 0.00 0.00 72 1010.8
20260506121256 42 30 0.0 4.0 0.00 0.00 0.00 72 1010.8
20260506121250 42 42 0.0 4.0 0.00 0.00 0.00 72 1010.8
20260506121144 43 73 1.0 4.0 0.00 0.00 0.00 72 1010.8
20260506121039 43 63 2.0 4.0 0.00 0.00 0.00 71 1010.8
20260506120932 43 63 0.0 3.0 0.00 0.00 0.00 71 1010.8
20260506120828 43 70 1.0 3.0 0.00 0.00 0.00 72 1010.8
20260506120749 43 73 0.0 3.0 0.00 0.00 0.00 72 1010.8
20260506120722 43 64 1.0 3.0 0.00 0.00 0.00 72 1010.8
20260506120616 43 23 0.0 3.0 0.00 0.00 0.00 71 1011.1
20260506120511 43 39 1.0 3.0 0.00 0.00 0.00 72 1010.8
20260506120417 43 36 1.0 3.0 0.00 0.00 0.00 71 1011.1
20260506120243 43 28 0.0 3.0 0.00 0.00 0.00 72 1010.8
20260506120153 43 37 1.0 3.0 0.00 0.00 0.00 72 1010.8
20260506120047 42 73 1.0 3.0 0.00 0.00 0.00 72 1010.8
20260506115942 42 354 2.0 3.0 0.00 0.00 0.00 72 1010.8
20260506115837 42 6 0.0 3.0 0.00 0.00 0.00 72 1010.8
20260506115737 42 353 1.0 3.0 0.00 0.00 0.00 72 1010.8
20260506115731 42 349 1.0 3.0 0.00 0.00 0.00 72 1010.8
20260506115623 42 37 0.0 3.0 0.00 0.00 0.00 72 1010.4
20260506115515 42 355 3.0 3.0 0.00 0.00 0.00 72 1010.4
20260506115423 42 2 0.0 3.0 0.00 0.00 0.00 73 1010.4
20260506115306 42 4 1.0 3.0 0.00 0.00 0.00 73 1010.4
20260506115238 42 346 1.0 3.0 0.00 0.00 0.00 73 1010.4
20260506115159 42 355 0.0 3.0 0.00 0.00 0.00 73 1010.4
20260506115053 42 353 0.0 4.0 0.00 0.00 0.00 73 1010.4
20260506114947 42 352 0.0 4.0 0.00 0.00 0.00 72 1010.4
20260506114842 42 1 0.0 4.0 0.00 0.00 0.00 73 1010.4
20260506114735 42 28 0.0 4.0 0.00 0.00 0.00 73 1010.4
20260506114629 41 43 0.0 4.0 0.00 0.00 0.00 73 1010.0
20260506114524 41 36 2.0 4.0 0.00 0.00 0.00 73 1010.4
20260506114418 41 12 0.0 4.0 0.00 0.00 0.00 73 1010.4
20260506114313 41 28 1.0 4.0 0.00 0.00 0.00 72 1010.0
20260506114224 41 20 1.0 4.0 0.00 0.00 0.00 72 1010.0
20260506114208 41 48 2.0 4.0 0.00 0.00 0.00 73 1010.0
20260506114102 41 343 2.0 4.0 0.00 0.00 0.00 73 1010.4
20260506113957 41 333 1.0 2.0 0.00 0.00 0.00 73 1010.4
20260506113849 41 355 1.0 2.0 0.00 0.00 0.00 73 1010.0
20260506113745 41 328 1.0 2.0 0.00 0.00 0.00 73 1010.0
20260506113717 41 7 0.0 2.0 0.00 0.00 0.00 73 1010.4
20260506113639 41 20 1.0 2.0 0.00 0.00 0.00 73 1010.4
20260506113533 41 344 0.0 2.0 0.00 0.00 0.00 74 1010.0
20260506113427 41 11 0.0 2.0 0.00 0.00 0.00 74 1010.0
20260506113321 41 339 0.0 2.0 0.00 0.00 0.00 74 1010.0
20260506113215 41 340 0.0 2.0 0.00 0.00 0.00 74 1010.0
20260506113110 41 343 1.0 2.0 0.00 0.00 0.00 74 1010.0
20260506113005 41 13 0.0 2.0 0.00 0.00 0.00 74 1010.0
20260506112859 41 6 0.0 2.0 0.00 0.00 0.00 73 1010.0
20260506112753 41 347 0.0 2.0 0.00 0.00 0.00 74 1010.0
20260506112705 41 6 0.0 2.0 0.00 0.00 0.00 74 1009.6
20260506112647 41 9 0.0 2.0 0.00 0.00 0.00 74 1009.6
20260506112542 41 8 1.0 2.0 0.00 0.00 0.00 74 1010.0
20260506112436 41 334 0.0 2.0 0.00 0.00 0.00 73 1010.0
20260506112332 41 334 1.0 2.0 0.00 0.00 0.00 73 1010.0
20260506112225 41 335 0.0 2.0 0.00 0.00 0.00 73 1009.6
20260506112159 41 335 1.0 2.0 0.00 0.00 0.00 73 1009.6
20260506112120 41 340 0.0 2.0 0.00 0.00 0.00 73 1009.6
20260506112014 41 11 0.0 2.0 0.00 0.00 0.00 73 1009.6
20260506111908 41 347 1.0 2.0 0.00 0.00 0.00 73 1009.6
20260506111803 41 345 0.0 2.0 0.00 0.00 0.00 73 1009.6
20260506111657 41 358 0.0 2.0 0.00 0.00 0.00 73 1009.6
20260506111550 41 332 0.0 2.0 0.00 0.00 0.00 73 1009.6
20260506111443 41 332 0.0 2.0 0.00 0.00 0.00 72 1009.6
20260506111339 41 332 1.0 2.0 0.00 0.00 0.00 72 1010.0
20260506111233 41 339 1.0 2.0 0.00 0.00 0.00 72 1010.0
20260506111144 41 20 0.0 2.0 0.00 0.00 0.00 73 1010.0
20260506111128 41 23 0.0 2.0 0.00 0.00 0.00 73 1009.6
20260506111035 42 31 1.0 2.0 0.00 0.00 0.00 73 1009.6
20260506110916 42 334 1.0 2.0 0.00 0.00 0.00 73 1009.6
20260506110811 42 334 1.0 2.0 0.00 0.00 0.00 72 1010.0
20260506110718 42 333 1.0 2.0 0.00 0.00 0.00 72 1009.6
20260506110638 42 346 1.0 2.0 0.00 0.00 0.00 72 1009.6
20260506110600 42 11 1.0 2.0 0.00 0.00 0.00 72 1009.6
20260506110453 42 348 0.0 2.0 0.00 0.00 0.00 72 1010.0
20260506110347 42 17 0.0 2.0 0.00 0.00 0.00 72 1009.6
20260506110241 42 329 1.0 2.0 0.00 0.00 0.00 71 1009.6
20260506110138 42 329 1.0 2.0 0.00 0.00 0.00 71 1009.6
20260506110030 42 329 1.0 2.0 0.00 0.00 0.00 71 1009.6
20260506105925 42 359 2.0 2.0 0.00 0.00 0.00 72 1009.6
20260506105819 42 332 0.0 2.0 0.00 0.00 0.00 71 1009.6
20260506105712 42 334 0.0 2.0 0.00 0.00 0.00 71 1009.6
20260506105624 42 329 1.0 2.0 0.00 0.00 0.00 71 1009.6
20260506105607 42 329 0.0 2.0 0.00 0.00 0.00 71 1009.6
20260506105502 42 340 1.0 2.0 0.00 0.00 0.00 71 1009.6
20260506105355 42 349 0.0 0.0 0.00 0.00 0.00 71 1009.3
20260506105250 42 354 0.0 0.0 0.00 0.00 0.00 71 1009.6
20260506105118 42 357 0.0 0.0 0.00 0.00 0.00 70 1009.6
20260506105038 42 354 0.0 0.0 0.00 0.00 0.00 71 1009.3
20260506104933 42 352 0.0 0.0 0.00 0.00 0.00 71 1009.3
20260506104827 42 4 0.0 0.0 0.00 0.00 0.00 71 1009.3
20260506104722 42 329 0.0 0.0 0.00 0.00 0.00 70 1009.6
20260506104616 42 329 0.0 0.0 0.00 0.00 0.00 71 1009.6
20260506104511 42 341 0.0 0.0 0.00 0.00 0.00 72 1009.3
20260506104405 42 333 0.0 0.0 0.00 0.00 0.00 71 1009.6
20260506104300 42 333 0.0 0.0 0.00 0.00 0.00 71 1009.3
20260506104154 42 8 0.0 0.0 0.00 0.00 0.00 71 1009.3
20260506104105 42 13 0.0 1.0 0.00 0.00 0.00 71 1009.6
20260506104048 42 340 0.0 1.0 0.00 0.00 0.00 71 1009.6
20260506103943 42 341 0.0 1.0 0.00 0.00 0.00 70 1009.3
20260506103838 42 341 0.0 1.0 0.00 0.00 0.00 70 1009.3
20260506103829 42 349 0.0 2.0 0.00 0.00 0.00 69 1009.6
20260506103824 42 341 0.0 2.0 0.00 0.00 0.00 70 1009.6
20260506103815 42 349 0.0 2.0 0.00 0.00 0.00 69 1009.6
20260506103519 42 350 0.0 2.0 0.00 0.00 0.00 69 1009.6
20260506103413 42 345 0.0 2.0 0.00 0.00 0.00 69 1009.6
20260506103308 43 340 0.0 2.0 0.00 0.00 0.00 69 1009.6
20260506103202 43 346 0.0 3.0 0.00 0.00 0.00 70 1009.6
20260506103056 43 347 0.0 3.0 0.00 0.00 0.00 69 1009.3
20260506102951 43 345 0.0 3.0 0.00 0.00 0.00 69 1009.6
20260506102845 43 338 0.0 3.0 0.00 0.00 0.00 69 1009.6
20260506102739 43 343 2.0 3.0 0.00 0.00 0.00 69 1009.3
20260506102634 43 5 0.0 3.0 0.00 0.00 0.00 69 1009.6
20260506102546 43 331 1.0 3.0 0.00 0.00 0.00 69 1009.6
20260506102528 43 330 2.0 3.0 0.00 0.00 0.00 69 1009.3
20260506102422 43 353 1.0 3.0 0.00 0.00 0.00 69 1009.6
20260506102317 43 344 2.0 3.0 0.00 0.00 0.00 70 1009.3
20260506102211 43 330 1.0 2.0 0.00 0.00 0.00 70 1009.6
20260506102106 43 326 1.0 2.0 0.00 0.00 0.00 70 1009.6
20260506102038 43 328 2.0 2.0 0.00 0.00 0.00 71 1009.6
20260506102000 43 337 0.0 2.0 0.00 0.00 0.00 71 1009.3
20260506101854 43 337 0.0 2.0 0.00 0.00 0.00 70 1009.3
20260506101748 43 337 1.0 2.0 0.00 0.00 0.00 71 1009.3
20260506101643 43 337 0.0 2.0 0.00 0.00 0.00 70 1009.3
20260506101537 43 337 0.0 2.0 0.00 0.00 0.00 70 1009.3
20260506101431 43 337 1.0 2.0 0.00 0.00 0.00 69 1009.3
20260506101326 43 65 0.0 1.0 0.00 0.00 0.00 70 1009.3
20260506101220 43 69 0.0 1.0 0.00 0.00 0.00 70 1009.3
20260506101114 43 32 0.0 2.0 0.00 0.00 0.00 69 1009.3
20260506101026 43 5 0.0 2.0 0.00 0.00 0.00 69 1009.3
20260506101009 43 340 0.0 2.0 0.00 0.00 0.00 69 1009.3
20260506100903 43 33 0.0 3.0 0.00 0.00 0.00 69 1009.0
20260506100758 43 30 0.0 3.0 0.00 0.00 0.00 69 1009.0
20260506100651 43 27 0.0 3.0 0.00 0.00 0.00 69 1009.0
20260506100546 43 45 0.0 3.0 0.00 0.00 0.00 69 1009.3
20260506100519 43 45 0.0 3.0 0.00 0.00 0.00 69 1009.0
20260506100440 43 31 0.0 3.0 0.00 0.00 0.00 69 1009.0
20260506100336 43 56 1.0 3.0 0.00 0.00 0.00 69 1009.0
20260506100232 43 36 0.0 3.0 0.00 0.00 0.00 69 1009.0
20260506100136 43 25 0.0 3.0 0.00 0.00 0.00 69 1009.0
20260506100018 43 341 2.0 3.0 0.00 0.00 0.00 70 1009.0
20260506095912 43 46 1.0 2.0 0.00 0.00 0.00 70 1009.0
20260506095805 43 35 0.0 2.0 0.00 0.00 0.00 70 1009.0
20260506095658 43 42 0.0 3.0 0.00 0.00 0.00 70 1009.0
20260506095553 43 41 0.0 3.0 0.00 0.00 0.00 70 1009.0
20260506095505 43 32 0.0 3.0 0.00 0.00 0.00 70 1009.0
20260506095448 43 55 0.0 3.0 0.00 0.00 0.00 70 1009.0
20260506095342 43 47 0.0 3.0 0.00 0.00 0.00 69 1009.0
20260506095236 43 41 1.0 3.0 0.00 0.00 0.00 70 1009.0
20260506095130 43 34 0.0 3.0 0.00 0.00 0.00 70 1009.0
20260506095025 43 61 1.0 3.0 0.00 0.00 0.00 70 1009.0
20260506094959 43 23 1.0 3.0 0.00 0.00 0.00 69 1009.0
20260506094919 43 43 1.0 3.0 0.00 0.00 0.00 69 1008.6
20260506094814 43 42 0.0 3.0 0.00 0.00 0.00 70 1009.0
20260506094707 43 17 1.0 3.0 0.00 0.00 0.00 71 1009.0
20260506094603 43 36 2.0 6.0 0.00 0.00 0.00 71 1009.0
20260506094454 43 358 2.0 6.0 0.00 0.00 0.00 72 1009.0
20260506094349 44 37 1.0 6.0 0.00 0.00 0.00 72 1008.6
20260506094243 44 65 0.0 6.0 0.00 0.00 0.00 73 1009.0
20260506094137 44 21 0.0 6.0 0.00 0.00 0.00 73 1009.0
20260506094032 44 38 0.0 6.0 0.00 0.00 0.00 73 1009.0
20260506093928 44 52 1.0 6.0 0.00 0.00 0.00 73 1009.0
20260506093820 44 52 0.0 6.0 0.00 0.00 0.00 73 1009.0
20260506093715 44 40 1.0 6.0 0.00 0.00 0.00 74 1009.0
20260506093609 44 354 4.0 6.0 0.00 0.00 0.00 73 1009.0
20260506093504 44 332 1.0 6.0 0.00 0.00 0.00 73 1009.0
20260506093438 44 25 0.0 6.0 0.00 0.00 0.00 73 1009.0
20260506093254 44 24 0.0 3.0 0.00 0.00 0.00 74 1008.6
20260506093041 44 30 2.0 4.0 0.00 0.00 0.00 74 1008.6
20260506092934 44 26 0.0 4.0 0.00 0.00 0.00 74 1009.0
20260506092829 44 22 0.0 4.0 0.00 0.00 0.00 74 1009.0
20260506092723 44 19 1.0 4.0 0.00 0.00 0.00 74 1009.0
20260506092618 44 314 0.0 4.0 0.00 0.00 0.00 74 1009.0
20260506092514 44 342 1.0 4.0 0.00 0.00 0.00 74 1009.0
20260506092425 44 1 2.0 4.0 0.00 0.00 0.00 74 1009.0
20260506092305 44 15 2.0 4.0 0.00 0.00 0.00 74 1009.0
20260506092159 44 351 4.0 4.0 0.00 0.00 0.00 74 1009.0
20260506092052 44 19 1.0 2.0 0.00 0.00 0.00 75 1008.6
20260506091947 44 326 2.0 2.0 0.00 0.00 0.00 75 1008.6
20260506091920 44 45 0.0 2.0 0.00 0.00 0.00 75 1008.6
20260506091841 44 51 0.0 2.0 0.00 0.00 0.00 74 1008.3
20260506091735 44 6 2.0 2.0 0.00 0.00 0.00 75 1009.0
20260506091524 44 45 0.0 2.0 0.00 0.00 0.00 75 1008.6
20260506091418 44 48 0.0 2.0 0.00 0.00 0.00 75 1008.6
20260506091312 44 48 0.0 2.0 0.00 0.00 0.00 75 1008.6
20260506091207 45 37 0.0 2.0 0.00 0.00 0.00 75 1008.6
20260506090954 45 53 0.0 4.0 0.00 0.00 0.00 75 1008.6
20260506090907 45 38 0.0 7.0 0.00 0.00 0.00 75 1008.6
20260506090849 45 54 1.0 7.0 0.00 0.00 0.00 75 1008.6
20260506090744 45 46 1.0 7.0 0.00 0.00 0.00 75 1008.6
20260506090638 45 47 0.0 7.0 0.00 0.00 0.00 75 1008.6
20260506090533 45 41 0.0 7.0 0.00 0.00 0.00 75 1008.6
20260506090426 45 51 0.0 7.0 0.00 0.00 0.00 74 1008.6
20260506090400 45 55 1.0 7.0 0.00 0.00 0.00 74 1008.6
20260506090321 45 41 0.0 7.0 0.00 0.00 0.00 74 1008.3
20260506090215 45 357 1.0 7.0 0.00 0.00 0.00 74 1008.6
20260506090110 45 28 1.0 7.0 0.00 0.00 0.00 74 1008.3
20260506090005 45 26 1.0 7.0 0.00 0.00 0.00 74 1008.6
20260506085858 45 44 0.0 2.0 0.00 0.00 0.00 74 1008.6
20260506085752 45 32 0.0 1.0 0.00 0.00 0.00 74 1008.6
20260506085648 45 22 0.0 1.0 0.00 0.00 0.00 73 1008.6
20260506085541 45 24 0.0 1.0 0.00 0.00 0.00 73 1008.6
20260506085435 45 9 0.0 1.0 0.00 0.00 0.00 73 1008.6
20260506085347 45 10 0.0 1.0 0.00 0.00 0.00 73 1008.6
20260506085329 45 19 0.0 1.0 0.00 0.00 0.00 73 1008.6
20260506085225 45 17 0.0 3.0 0.00 0.00 0.00 73 1008.6
20260506085117 45 358 0.0 3.0 0.00 0.00 0.00 73 1008.6
20260506085012 45 8 0.0 3.0 0.00 0.00 0.00 73 1008.6
20260506084907 45 15 0.0 3.0 0.00 0.00 0.00 72 1008.3
20260506084840 45 20 1.0 3.0 0.00 0.00 0.00 72 1008.3
20260506084801 45 3 0.0 4.0 0.00 0.00 0.00 72 1008.3
20260506084655 45 27 0.0 4.0 0.00 0.00 0.00 72 1008.3
20260506084550 45 32 0.0 4.0 0.00 0.00 0.00 72 1008.3
20260506084444 45 32 0.0 4.0 0.00 0.00 0.00 71 1008.6
20260506084338 45 22 0.0 4.0 0.00 0.00 0.00 71 1008.6
20260506084233 46 345 0.0 4.0 0.00 0.00 0.00 71 1008.6
20260506084127 46 27 0.0 4.0 0.00 0.00 0.00 71 1008.6
20260506084020 46 8 0.0 4.0 0.00 0.00 0.00 71 1008.6
20260506083914 46 2 2.0 4.0 0.00 0.00 0.00 71 1008.6
20260506083825 46 345 1.0 3.0 0.00 0.00 0.00 71 1008.6
20260506083809 46 347 0.0 3.0 0.00 0.00 0.00 71 1008.6
20260506083702 46 24 1.0 3.0 0.00 0.00 0.00 71 1008.6
20260506083557 46 30 0.0 3.0 0.00 0.00 0.00 71 1008.6
20260506083451 46 2 1.0 3.0 0.00 0.00 0.00 71 1008.6
20260506083346 46 335 1.0 3.0 0.00 0.00 0.00 70 1008.3
20260506083319 46 32 1.0 2.0 0.00 0.00 0.00 70 1008.6
20260506083241 46 11 0.0 2.0 0.00 0.00 0.00 70 1008.6
20260506083136 46 356 0.0 2.0 0.00 0.00 0.00 70 1008.6
20260506083029 46 18 0.0 2.0 0.00 0.00 0.00 70 1008.6
20260506082923 46 340 0.0 2.0 0.00 0.00 0.00 71 1008.3
20260506082818 46 346 0.0 2.0 0.00 0.00 0.00 71 1008.3
20260506082713 46 8 0.0 2.0 0.00 0.00 0.00 70 1008.6
20260506082606 46 14 1.0 4.0 0.00 0.00 0.00 69 1008.6
20260506082501 46 335 1.0 4.0 0.00 0.00 0.00 69 1008.6
20260506082355 46 8 2.0 4.0 0.00 0.00 0.00 69 1008.6
20260506082307 46 330 0.0 4.0 0.00 0.00 0.00 69 1008.6
20260506082250 46 316 0.0 4.0 0.00 0.00 0.00 69 1008.6
20260506082144 46 343 0.0 4.0 0.00 0.00 0.00 69 1008.3
20260506082039 46 330 2.0 4.0 0.00 0.00 0.00 69 1008.3
20260506081933 46 325 1.0 4.0 0.00 0.00 0.00 69 1008.3
20260506081827 46 317 1.0 4.0 0.00 0.00 0.00 69 1008.6
20260506081801 46 334 0.0 4.0 0.00 0.00 0.00 69 1008.6
20260506081722 46 319 3.0 4.0 0.00 0.00 0.00 68 1008.3
20260506081616 46 323 1.0 3.0 0.00 0.00 0.00 68 1008.6
20260506081510 46 319 1.0 3.0 0.00 0.00 0.00 68 1008.6
20260506081405 46 314 1.0 3.0 0.00 0.00 0.00 68 1008.6
20260506081258 46 2 1.0 3.0 0.00 0.00 0.00 67 1008.6
20260506081153 46 330 1.0 3.0 0.00 0.00 0.00 67 1008.6
20260506081047 46 348 1.0 3.0 0.00 0.00 0.00 67 1008.6
20260506080941 46 330 0.0 3.0 0.00 0.00 0.00 67 1008.3
20260506080837 46 333 0.0 3.0 0.00 0.00 0.00 67 1008.6
20260506080747 46 333 0.0 3.0 0.00 0.00 0.00 67 1008.6
20260506080730 46 15 2.0 3.0 0.00 0.00 0.00 67 1008.6
20260506080625 46 335 0.0 2.0 0.00 0.00 0.00 67 1008.6
20260506080519 46 334 0.0 2.0 0.00 0.00 0.00 67 1008.6
20260506080416 46 17 0.0 2.0 0.00 0.00 0.00 68 1008.6
20260506080307 46 329 0.0 3.0 0.00 0.00 0.00 67 1008.3
20260506080240 46 333 0.0 3.0 0.00 0.00 0.00 67 1008.3
20260506080202 46 332 0.0 4.0 0.00 0.00 0.00 67 1008.6
20260506073437 47 318 2.0 3.0 0.00 0.00 0.00 63 1008.3
20260506073331 47 320 3.0 3.0 0.00 0.00 0.00 63 1007.9
20260506073226 47 305 1.0 3.0 0.00 0.00 0.00 63 1008.3
20260506073159 47 321 3.0 3.0 0.00 0.00 0.00 63 1008.3
20260506073120 47 343 3.0 3.0 0.00 0.00 0.00 64 1008.3
20260506073015 47 346 1.0 3.0 0.00 0.00 0.00 64 1008.3
20260506072910 47 357 2.0 3.0 0.00 0.00 0.00 64 1008.3
20260506072804 47 288 0.0 3.0 0.00 0.00 0.00 64 1007.9
20260506072658 47 349 1.0 3.0 0.00 0.00 0.00 64 1007.9
20260506072551 47 327 1.0 3.0 0.00 0.00 0.00 63 1008.3
20260506072445 47 327 2.0 3.0 0.00 0.00 0.00 63 1008.3
20260506072339 47 319 1.0 3.0 0.00 0.00 0.00 63 1008.3
20260506072233 47 345 2.0 3.0 0.00 0.00 0.00 63 1008.3
20260506072145 47 344 2.0 3.0 0.00 0.00 0.00 63 1008.3
20260506072128 47 336 1.0 3.0 0.00 0.00 0.00 63 1008.3
20260506072023 47 319 1.0 3.0 0.00 0.00 0.00 63 1008.3
20260506071916 47 330 1.0 3.0 0.00 0.00 0.00 63 1008.3
20260506071810 47 326 1.0 6.0 0.00 0.00 0.00 63 1007.9
20260506071706 47 40 1.0 6.0 0.00 0.00 0.00 63 1008.3
20260506071638 47 350 2.0 6.0 0.00 0.00 0.00 63 1008.3
20260506071600 47 8 1.0 6.0 0.00 0.00 0.00 63 1008.3
20260506071453 47 333 2.0 6.0 0.00 0.00 0.00 63 1008.6
20260506071348 47 339 0.0 6.0 0.00 0.00 0.00 63 1008.6
20260506071242 47 316 1.0 6.0 0.00 0.00 0.00 62 1008.6
20260506071136 47 336 0.0 6.0 0.00 0.00 0.00 62 1008.3
20260506071031 47 337 2.0 6.0 0.00 0.00 0.00 62 1008.3
20260506070924 47 4 2.0 6.0 0.00 0.00 0.00 62 1008.3
20260506070819 47 344 3.0 6.0 0.00 0.00 0.00 62 1008.3
20260506070713 47 324 1.0 6.0 0.00 0.00 0.00 62 1008.6
20260506070625 47 306 1.0 6.0 0.00 0.00 0.00 62 1008.3
20260506070607 47 327 3.0 6.0 0.00 0.00 0.00 62 1008.3
20260506070502 47 321 0.0 6.0 0.00 0.00 0.00 62 1008.3
20260506070355 47 315 1.0 6.0 0.00 0.00 0.00 62 1008.3
20260506070250 47 331 0.0 6.0 0.00 0.00 0.00 62 1008.3
20260506070144 47 330 1.0 6.0 0.00 0.00 0.00 62 1008.3
20260506070118 47 309 1.0 6.0 0.00 0.00 0.00 62 1008.3
20260506062431 48 326 0.0 3.0 0.00 0.00 0.00 59 1008.6
20260506062325 48 330 0.0 3.0 0.00 0.00 0.00 59 1008.6
20260506062300 48 287 1.0 4.0 0.00 0.00 0.00 58 1008.6
20260506062255 48 248 0.0 3.0 0.00 0.00 0.00 59 1008.6
20260506062245 48 184 0.0 3.0 0.00 0.00 0.00 59 1008.3
20260506062007 48 341 1.0 7.0 0.00 0.00 0.00 58 1008.6
20260506061901 48 336 2.0 7.0 0.00 0.00 0.00 58 1008.6
20260506061756 48 324 2.0 7.0 0.00 0.00 0.00 58 1008.6
20260506061747 48 326 2.0 7.0 0.00 0.00 0.00 58 1008.3
20260506061738 48 315 0.0 7.0 0.00 0.00 0.00 58 1008.6
20260506061439 48 329 1.0 7.0 0.00 0.00 0.00 58 1008.6
20260506061334 48 328 1.0 7.0 0.00 0.00 0.00 57 1008.3
20260506061249 48 326 2.0 7.0 0.00 0.00 0.00 57 1008.3
20260506061240 48 326 2.0 7.0 0.00 0.00 0.00 57 1008.6
20260506061229 48 330 4.0 6.0 0.00 0.00 0.00 58 1008.6
20260506060911 48 309 1.0 3.0 0.00 0.00 0.00 58 1008.6
20260506060805 48 27 0.0 3.0 0.00 0.00 0.00 57 1008.6
20260506060737 48 305 2.0 3.0 0.00 0.00 0.00 57 1008.3
20260506060732 48 330 2.0 3.0 0.00 0.00 0.00 57 1008.6
20260506060723 48 332 1.0 3.0 0.00 0.00 0.00 57 1008.3
20260506060447 48 325 1.0 3.0 0.00 0.00 0.00 57 1008.3
20260506060342 48 322 1.0 3.0 0.00 0.00 0.00 57 1008.6
20260506060235 48 276 2.0 3.0 0.00 0.00 0.00 57 1008.6
20260506060130 48 298 2.0 3.0 0.00 0.00 0.00 58 1008.3
20260506051354 49 341 1.0 2.0 0.00 0.00 0.00 57 1008.6
20260506051316 49 282 0.0 2.0 0.00 0.00 0.00 57 1008.6
20260506051209 49 300 0.0 2.0 0.00 0.00 0.00 58 1008.6
20260506051103 49 308 0.0 2.0 0.00 0.00 0.00 57 1008.3
20260506050957 49 324 0.0 3.0 0.00 0.00 0.00 56 1008.3
20260506050851 49 278 1.0 3.0 0.00 0.00 0.00 58 1007.9
20260506050746 49 227 1.0 3.0 0.00 0.00 0.00 57 1008.6
20260506050640 49 340 1.0 3.0 0.00 0.00 0.00 56 1008.6
20260506050534 49 319 1.0 3.0 0.00 0.00 0.00 57 1008.3
20260506050430 49 291 0.0 4.0 0.00 0.00 0.00 57 1008.3
20260506050340 49 290 0.0 4.0 0.00 0.00 0.00 57 1008.3
20260506050323 49 300 0.0 4.0 0.00 0.00 0.00 57 1008.3
20260506050217 49 277 0.0 4.0 0.00 0.00 0.00 56 1008.3
20260506050116 49 258 0.0 4.0 0.00 0.00 0.00 56 1008.3
20260506045121 49 276 0.0 4.0 0.00 0.00 0.00 57 1008.3
20260506045015 49 250 1.0 4.0 0.00 0.00 0.00 56 1008.3
20260506044909 49 325 0.0 3.0 0.00 0.00 0.00 57 1008.3
20260506044820 49 320 1.0 6.0 0.00 0.00 0.00 56 1007.9
20260506044804 49 351 2.0 6.0 0.00 0.00 0.00 57 1007.9
20260506044658 49 314 0.0 6.0 0.00 0.00 0.00 57 1007.9
20260506044552 49 325 0.0 6.0 0.00 0.00 0.00 57 1007.9
20260506044447 49 333 2.0 6.0 0.00 0.00 0.00 57 1007.9
20260506044340 49 340 1.0 6.0 0.00 0.00 0.00 57 1007.9
20260506044314 49 318 1.0 6.0 0.00 0.00 0.00 57 1007.9
20260506044235 49 303 1.0 6.0 0.00 0.00 0.00 58 1008.3
20260506044130 49 294 0.0 6.0 0.00 0.00 0.00 57 1008.3
20260506044023 49 307 1.0 6.0 0.00 0.00 0.00 56 1008.3
20260506043919 49 312 1.0 6.0 0.00 0.00 0.00 56 1007.9
20260506043812 49 316 1.0 3.0 0.00 0.00 0.00 57 1007.9
20260506043707 49 341 0.0 3.0 0.00 0.00 0.00 57 1007.9
20260506043601 49 7 1.0 3.0 0.00 0.00 0.00 57 1007.9
20260506043455 49 298 0.0 3.0 0.00 0.00 0.00 57 1008.3
20260506043349 49 226 0.0 3.0 0.00 0.00 0.00 57 1008.3
20260506043301 49 226 1.0 3.0 0.00 0.00 0.00 57 1007.9
20260506043244 49 269 1.0 3.0 0.00 0.00 0.00 57 1007.9
20260506043138 49 312 2.0 3.0 0.00 0.00 0.00 57 1007.9
20260506043032 49 312 1.0 3.0 0.00 0.00 0.00 56 1007.9
20260506042927 49 318 2.0 3.0 0.00 0.00 0.00 57 1007.9
20260506042821 49 280 1.0 3.0 0.00 0.00 0.00 57 1007.9
20260506042755 49 281 1.0 3.0 0.00 0.00 0.00 57 1007.9
20260506042715 49 322 1.0 3.0 0.00 0.00 0.00 57 1007.9
20260506042610 49 328 1.0 3.0 0.00 0.00 0.00 57 1007.9
20260506042503 49 324 1.0 3.0 0.00 0.00 0.00 57 1008.3
20260506042359 49 324 0.0 3.0 0.00 0.00 0.00 57 1007.9
20260506042253 49 334 0.0 3.0 0.00 0.00 0.00 56 1008.3
20260506042148 49 344 1.0 3.0 0.00 0.00 0.00 56 1008.3
20260506042041 49 328 1.0 2.0 0.00 0.00 0.00 57 1007.9
20260506041935 49 288 1.0 2.0 0.00 0.00 0.00 57 1007.9
20260506041830 49 314 1.0 2.0 0.00 0.00 0.00 57 1007.9
20260506041741 49 315 1.0 2.0 0.00 0.00 0.00 57 1007.9
20260506041725 49 337 1.0 2.0 0.00 0.00 0.00 57 1007.9
20260506041620 49 305 0.0 2.0 0.00 0.00 0.00 58 1008.3
20260506041513 49 161 0.0 2.0 0.00 0.00 0.00 57 1007.9
20260506041408 49 289 0.0 2.0 0.00 0.00 0.00 57 1007.9
20260506041302 49 289 0.0 2.0 0.00 0.00 0.00 57 1007.9
20260506041236 49 290 0.0 2.0 0.00 0.00 0.00 57 1007.9
20260506041157 49 290 0.0 2.0 0.00 0.00 0.00 57 1007.9
20260506041050 49 310 0.0 2.0 0.00 0.00 0.00 57 1007.9
20260506040944 49 302 0.0 3.0 0.00 0.00 0.00 58 1007.9
20260506040837 49 320 0.0 3.0 0.00 0.00 0.00 58 1008.3
20260506040733 49 5 1.0 3.0 0.00 0.00 0.00 57 1008.3
20260506040627 49 272 2.0 3.0 0.00 0.00 0.00 56 1008.3
20260506040533 49 312 0.0 3.0 0.00 0.00 0.00 56 1008.3
20260506040415 49 324 0.0 3.0 0.00 0.00 0.00 57 1008.3
20260506040221 49 332 0.0 3.0 0.00 0.00 0.00 56 1007.9
20260506040204 49 332 0.0 3.0 0.00 0.00 0.00 56 1007.9
20260506035952 49 283 1.0 2.0 0.00 0.00 0.03 56 1008.3
20260506035847 49 320 0.0 2.0 0.00 0.00 0.03 56 1008.3
20260506035741 49 350 1.0 2.0 0.00 0.00 0.03 56 1008.3
20260506035715 49 327 1.0 2.0 0.00 0.00 0.03 56 1008.3
20260506035635 49 287 1.0 2.0 0.00 0.00 0.03 57 1008.3
20260506035530 49 276 0.0 1.0 0.00 0.00 0.03 57 1008.6
20260506035424 49 276 0.0 1.0 0.00 0.00 0.03 56 1008.3
20260506035319 49 277 0.0 3.0 0.00 0.00 0.03 56 1008.3
20260506035213 49 284 0.0 3.0 0.00 0.00 0.03 56 1008.3
20260506035107 49 290 0.0 3.0 0.00 0.00 0.03 55 1008.3
20260506035002 49 300 0.0 3.0 0.00 0.00 0.03 56 1008.6
20260506034856 49 241 1.0 3.0 0.00 0.00 0.03 57 1008.3
20260506034749 49 203 0.0 3.0 0.00 0.00 0.03 57 1008.6
20260506034643 49 222 0.0 3.0 0.00 0.00 0.03 57 1008.3
20260506034537 49 219 0.0 3.0 0.00 0.00 0.03 57 1008.3
20260506034431 49 213 1.0 3.0 0.00 0.00 0.03 57 1008.3
20260506034326 49 287 0.0 2.0 0.00 0.00 0.03 55 1008.3
20260506034219 49 349 0.0 2.0 0.00 0.00 0.03 56 1008.3
20260506034153 49 311 0.0 2.0 0.00 0.00 0.03 56 1008.3
20260506034114 49 281 0.0 2.0 0.00 0.00 0.03 56 1008.3
20260506034009 49 283 0.0 2.0 0.00 0.00 0.03 56 1008.3
20260506033903 49 254 0.0 4.0 0.00 0.00 0.03 56 1008.6
20260506033758 49 247 0.0 4.0 0.00 0.00 0.03 55 1008.6
20260506033652 49 257 1.0 4.0 0.00 0.00 0.03 55 1008.3
20260506033546 49 266 0.0 4.0 0.00 0.00 0.03 56 1008.6
20260506033441 49 265 2.0 4.0 0.00 0.00 0.03 55 1008.3
20260506033336 49 287 1.0 4.0 0.00 0.00 0.03 55 1008.3
20260506033229 49 286 1.0 4.0 0.00 0.00 0.03 55 1008.3
20260506033124 49 201 0.0 4.0 0.00 0.00 0.03 55 1008.3
20260506033018 49 235 0.0 4.0 0.00 0.00 0.03 55 1008.3
20260506032913 49 188 1.0 3.0 0.00 0.00 0.03 55 1008.3
20260506032806 49 241 0.0 3.0 0.00 0.00 0.03 55 1008.3
20260506032701 49 276 1.0 3.0 0.00 0.00 0.03 54 1008.3
20260506032634 49 198 2.0 3.0 0.00 0.00 0.03 55 1008.3
20260506032556 49 316 0.0 1.0 0.00 0.00 0.03 56 1008.3
20260506032449 49 319 0.0 1.0 0.00 0.00 0.03 55 1008.3
20260506032344 49 307 0.0 1.0 0.00 0.00 0.03 55 1008.6
20260506032239 49 250 0.0 3.0 0.00 0.00 0.03 55 1008.6
20260506032133 49 232 0.0 3.0 0.00 0.00 0.03 56 1008.3
20260506032027 49 232 0.0 3.0 0.00 0.00 0.03 56 1008.6
20260506031921 49 232 0.0 3.0 0.00 0.00 0.03 54 1008.6
20260506031814 49 230 1.0 3.0 0.00 0.00 0.03 54 1008.3
20260506031710 50 238 0.0 3.0 0.00 0.00 0.03 54 1008.3
20260506031621 50 258 0.0 3.0 0.00 0.00 0.03 55 1008.3
20260506031604 50 259 0.0 3.0 0.00 0.00 0.03 56 1008.3
20260506031459 49 272 0.0 3.0 0.00 0.00 0.03 54 1008.3
20260506031353 49 267 1.0 3.0 0.00 0.00 0.03 54 1008.3
20260506031247 49 283 0.0 3.0 0.00 0.00 0.03 54 1008.3
20260506031142 49 278 0.0 3.0 0.00 0.00 0.03 55 1008.3
20260506031116 49 259 0.0 3.0 0.00 0.00 0.03 55 1008.3
20260506031035 50 255 0.0 3.0 0.00 0.00 0.03 55 1008.3
20260506030942 50 319 0.0 3.0 0.00 0.00 0.03 54 1007.9
20260506030825 50 250 1.0 3.0 0.00 0.00 0.03 54 1008.3
20260506030718 50 193 0.0 3.0 0.00 0.00 0.03 54 1008.3
20260506030612 50 269 0.0 3.0 0.00 0.00 0.03 54 1008.3
20260506030506 50 275 0.0 3.0 0.00 0.00 0.03 54 1008.3
20260506030400 50 311 2.0 3.0 0.00 0.00 0.03 54 1008.3
20260506030254 50 232 0.0 2.0 0.00 0.00 0.03 55 1008.3
20260506030149 50 232 0.0 2.0 0.00 0.00 0.03 54 1008.3
20260506030056 50 223 0.0 2.0 0.00 0.00 0.03 55 1008.3
20260506025937 50 240 0.0 2.0 0.00 0.00 0.03 55 1008.3
20260506025831 50 240 0.0 2.0 0.00 0.00 0.03 54 1007.9
20260506025726 50 259 0.0 2.0 0.00 0.00 0.03 54 1008.6
20260506025619 50 314 1.0 2.0 0.00 0.00 0.03 55 1008.6
20260506025551 50 301 0.0 1.0 0.00 0.00 0.03 55 1008.6
20260506025513 50 36 1.0 1.0 0.00 0.00 0.03 54 1008.3
20260506025407 50 252 0.0 3.0 0.00 0.00 0.03 54 1008.3
20260506025305 50 182 0.0 3.0 0.00 0.00 0.03 54 1008.3
20260506025155 50 274 0.0 3.0 0.00 0.00 0.03 54 1008.3
20260506025050 50 288 0.0 3.0 0.00 0.00 0.03 54 1008.3
20260506024957 50 293 0.0 3.0 0.00 0.00 0.03 54 1008.6
20260506024838 50 233 0.0 3.0 0.00 0.00 0.03 54 1008.6
20260506024734 50 259 0.0 3.0 0.00 0.00 0.03 55 1008.3
20260506024628 50 226 0.0 3.0 0.00 0.00 0.03 56 1008.3
20260506024539 50 226 0.0 3.0 0.00 0.00 0.03 56 1008.3
20260506024522 50 226 0.0 3.0 0.00 0.00 0.03 55 1008.6
20260506024416 50 250 0.0 2.0 0.00 0.00 0.03 54 1008.6
20260506024311 50 244 0.0 2.0 0.00 0.00 0.03 54 1008.6
20260506024218 50 236 0.0 2.0 0.00 0.00 0.03 55 1008.3
20260506024100 50 219 0.0 2.0 0.00 0.00 0.03 54 1008.3
20260506024034 50 240 0.0 2.0 0.00 0.00 0.03 54 1007.9
20260506023954 50 259 1.0 2.0 0.00 0.00 0.03 54 1007.9
20260506023849 50 289 1.0 2.0 0.00 0.00 0.03 54 1008.3
20260506023756 50 248 0.0 2.0 0.00 0.00 0.03 54 1008.3
20260506023637 50 248 0.0 2.0 0.00 0.00 0.03 53 1008.3
20260506023531 50 223 2.0 2.0 0.00 0.00 0.03 53 1008.3
20260506023426 50 210 1.0 3.0 0.00 0.00 0.03 54 1008.3
20260506023321 50 219 0.0 3.0 0.00 0.00 0.03 53 1007.9
20260506023215 50 276 0.0 3.0 0.00 0.00 0.03 54 1008.3
20260506023110 50 293 0.0 3.0 0.00 0.00 0.03 54 1008.3
20260506023021 50 293 0.0 6.0 0.00 0.00 0.03 54 1008.3
20260506023005 50 293 0.0 6.0 0.00 0.00 0.03 54 1008.3
20260506022859 50 302 0.0 6.0 0.00 0.00 0.03 54 1008.3
20260506022753 50 24 0.0 6.0 0.00 0.00 0.03 53 1008.3
20260506022647 50 196 1.0 6.0 0.00 0.00 0.03 53 1008.3
20260506022541 50 87 0.0 6.0 0.00 0.00 0.03 54 1008.3
20260506022514 50 48 1.0 6.0 0.00 0.00 0.03 53 1008.3
20260506022435 50 318 1.0 6.0 0.00 0.00 0.03 53 1008.3
20260506022330 50 227 0.0 6.0 0.00 0.00 0.03 53 1008.3
20260506022224 50 238 0.0 6.0 0.00 0.00 0.03 53 1008.6
20260506022119 50 246 3.0 6.0 0.00 0.00 0.03 52 1008.6
20260506022013 50 263 0.0 3.0 0.00 0.00 0.03 53 1008.6
20260506021908 50 305 0.0 4.0 0.00 0.00 0.03 54 1008.6
20260506021801 50 278 1.0 4.0 0.00 0.00 0.03 52 1008.6
20260506021655 50 193 2.0 4.0 0.00 0.00 0.03 53 1008.3
20260506021549 51 260 1.0 4.0 0.00 0.00 0.03 53 1008.6
20260506021500 51 247 1.0 4.0 0.00 0.00 0.03 54 1008.3
20260506021443 51 264 1.0 4.0 0.00 0.00 0.03 53 1008.3
20260506021337 51 180 1.0 4.0 0.00 0.00 0.03 53 1008.6
20260506021231 51 239 0.0 4.0 0.00 0.00 0.03 53 1008.6
20260506021125 51 145 1.0 4.0 0.00 0.00 0.03 54 1008.3
20260506021020 51 284 3.0 4.0 0.00 0.00 0.03 53 1008.3
20260506020954 51 298 3.0 4.0 0.00 0.00 0.03 54 1008.3
20260506020915 51 226 2.0 4.0 0.00 0.00 0.03 53 1008.3
20260506020809 51 203 0.0 4.0 0.00 0.00 0.03 54 1008.6
20260506020704 51 221 0.0 4.0 0.00 0.00 0.03 53 1008.3
20260506020557 51 206 0.0 4.0 0.00 0.00 0.03 54 1008.3
20260506020452 51 219 0.0 4.0 0.00 0.00 0.03 54 1008.3
20260506020346 51 210 0.0 4.0 0.00 0.00 0.03 53 1008.3
20260506020241 51 245 1.0 4.0 0.00 0.00 0.03 51 1008.3
20260506020135 51 295 3.0 4.0 0.00 0.00 0.03 51 1008.3
20260506020031 51 221 2.0 3.0 0.00 0.00 0.03 52 1008.3
20260506015941 51 229 2.0 8.0 0.00 0.00 0.03 52 1008.3
20260506015924 51 244 1.0 8.0 0.00 0.00 0.03 52 1008.3
20260506015818 51 258 0.0 8.0 0.00 0.00 0.03 53 1007.9
20260506015713 51 232 0.0 8.0 0.00 0.00 0.03 53 1008.3
20260506015607 51 240 0.0 8.0 0.00 0.00 0.03 53 1008.3
20260506015502 51 235 1.0 8.0 0.00 0.00 0.03 52 1007.9
20260506015435 51 299 0.0 8.0 0.00 0.00 0.03 53 1007.9
20260506015356 51 250 0.0 8.0 0.00 0.00 0.03 53 1007.9
20260506015250 51 227 0.0 8.0 0.00 0.00 0.03 52 1007.9
20260506015145 51 250 0.0 8.0 0.00 0.00 0.03 50 1007.9
20260506015039 51 221 3.0 8.0 0.00 0.00 0.03 51 1007.9
20260506014932 51 311 0.0 3.0 0.00 0.00 0.03 52 1007.9
20260506014827 51 224 0.0 3.0 0.00 0.00 0.03 51 1007.9
20260506014724 51 236 1.0 3.0 0.00 0.00 0.03 51 1007.9
20260506014618 51 230 0.0 3.0 0.00 0.00 0.03 51 1007.9
20260506014513 51 270 0.0 3.0 0.00 0.00 0.03 52 1007.9
20260506014425 51 272 0.0 3.0 0.00 0.00 0.03 51 1007.9
20260506014407 51 281 1.0 3.0 0.00 0.00 0.03 52 1007.9
20260506014301 51 171 0.0 3.0 0.00 0.00 0.03 52 1007.9
20260506014156 51 200 0.0 3.0 0.00 0.00 0.03 51 1007.9
20260506014049 51 267 2.0 4.0 0.00 0.00 0.03 51 1007.9
20260506013945 51 299 0.0 6.0 0.00 0.00 0.03 51 1007.9
20260506013918 51 15 0.0 6.0 0.00 0.00 0.03 52 1007.9
20260506013838 51 224 3.0 6.0 0.00 0.00 0.03 51 1007.9
20260506013733 51 85 0.0 6.0 0.00 0.00 0.03 52 1007.6
20260506013627 51 252 0.0 6.0 0.00 0.00 0.03 52 1007.6
20260506013521 51 273 1.0 6.0 0.00 0.00 0.03 51 1007.9
20260506013416 51 262 0.0 6.0 0.00 0.00 0.03 51 1007.9
20260506013309 51 256 0.0 6.0 0.00 0.00 0.03 51 1007.9
20260506013204 51 186 1.0 6.0 0.00 0.00 0.03 52 1007.9
20260506013058 51 298 2.0 6.0 0.00 0.00 0.03 51 1007.9
20260506012953 51 270 1.0 3.0 0.00 0.00 0.03 51 1007.9
20260506012903 51 222 2.0 3.0 0.00 0.00 0.03 50 1007.9
20260506012847 51 268 2.0 3.0 0.00 0.00 0.03 51 1007.9
20260506012741 51 280 2.0 3.0 0.00 0.00 0.03 52 1007.9
20260506012635 51 269 0.0 3.0 0.00 0.00 0.03 52 1007.9
20260506012529 51 246 0.0 3.0 0.00 0.00 0.03 51 1007.6
20260506012424 51 289 1.0 4.0 0.00 0.00 0.03 51 1007.6
20260506012357 51 276 2.0 4.0 0.00 0.00 0.03 51 1007.6
20260506012318 51 206 0.0 4.0 0.00 0.00 0.03 52 1007.9
20260506012213 51 254 0.0 4.0 0.00 0.00 0.03 52 1007.9
20260506012107 51 249 0.0 4.0 0.00 0.00 0.03 51 1007.6
20260506012003 51 226 1.0 4.0 0.00 0.00 0.03 52 1007.6
20260506011855 51 205 0.0 4.0 0.00 0.00 0.03 51 1007.9
20260506011750 52 249 1.0 4.0 0.00 0.00 0.03 50 1007.9
20260506011644 52 253 1.0 4.0 0.00 0.00 0.03 50 1007.9
20260506011539 52 287 1.0 4.0 0.00 0.00 0.03 50 1007.6
20260506011434 52 284 4.0 4.0 0.00 0.00 0.03 50 1007.6
20260506011344 51 272 3.0 4.0 0.00 0.00 0.03 50 1007.6
20260506011328 51 312 1.0 4.0 0.00 0.00 0.03 50 1007.6
20260506011222 51 242 2.0 4.0 0.00 0.00 0.03 50 1007.6
20260506011116 51 262 1.0 4.0 0.00 0.00 0.03 52 1007.9
20260506011022 52 157 1.0 3.0 0.00 0.00 0.03 51 1007.6
20260506010837 52 211 0.0 3.0 0.00 0.00 0.03 52 1007.6
20260506010758 52 235 1.0 3.0 0.00 0.00 0.03 51 1007.9
20260506010653 52 252 2.0 3.0 0.00 0.00 0.03 50 1007.9
20260506010548 52 222 0.0 3.0 0.00 0.00 0.03 50 1007.6
20260506010442 52 264 1.0 6.0 0.00 0.00 0.03 52 1007.9
20260506010336 52 284 1.0 6.0 0.00 0.00 0.03 52 1007.9
20260506010230 52 283 3.0 6.0 0.00 0.00 0.03 51 1007.9
20260506010125 52 242 0.0 6.0 0.00 0.00 0.03 52 1007.6
20260506010019 52 237 1.0 6.0 0.00 0.00 0.03 51 1007.6
20260506005914 52 332 0.0 6.0 0.00 0.00 0.03 51 1007.9
20260506005825 52 228 0.0 7.0 0.00 0.00 0.03 52 1007.6
20260506005808 52 241 0.0 7.0 0.00 0.00 0.03 52 1007.6
20260506005703 52 249 0.0 7.0 0.00 0.00 0.03 52 1007.6
20260506005556 52 274 1.0 7.0 0.00 0.00 0.03 51 1007.9
20260506005451 52 273 4.0 7.0 0.00 0.00 0.03 51 1007.6
20260506005345 52 223 0.0 7.0 0.00 0.00 0.03 52 1007.6
20260506005318 52 245 0.0 7.0 0.00 0.00 0.03 52 1007.6
20260506005239 52 195 0.0 7.0 0.00 0.00 0.03 53 1007.9
20260506005134 52 218 2.0 7.0 0.00 0.00 0.03 53 1007.9
20260506005027 52 297 1.0 7.0 0.00 0.00 0.03 52 1007.9
20260506004921 52 265 5.0 7.0 0.00 0.00 0.03 52 1007.6
20260506004815 52 196 3.0 3.0 0.00 0.00 0.03 54 1007.6
20260506004710 52 289 1.0 3.0 0.00 0.00 0.03 54 1007.6
20260506004605 52 268 0.0 3.0 0.00 0.00 0.03 55 1007.9
20260506004500 52 266 0.0 2.0 0.00 0.00 0.03 55 1007.6
20260506004354 52 273 0.0 2.0 0.00 0.00 0.03 56 1007.6
20260506004306 52 267 0.0 2.0 0.00 0.00 0.03 54 1007.9
20260506004248 52 257 0.0 2.0 0.00 0.00 0.03 55 1007.9
20260506004142 52 265 0.0 2.0 0.00 0.00 0.03 56 1007.6
20260506004036 52 235 0.0 2.0 0.00 0.00 0.03 55 1007.9
20260506003929 52 273 1.0 2.0 0.00 0.00 0.03 56 1007.9
20260506003824 52 266 0.0 2.0 0.00 0.00 0.03 57 1007.6
20260506003757 52 200 0.0 3.0 0.00 0.00 0.03 57 1007.6
20260506003718 52 227 1.0 3.0 0.00 0.00 0.03 56 1007.6
20260506003613 52 251 0.0 3.0 0.00 0.00 0.03 56 1007.6
20260506003508 52 218 0.0 3.0 0.00 0.00 0.03 57 1007.9
20260506003401 52 261 1.0 3.0 0.00 0.00 0.03 56 1007.6
20260506003256 52 228 1.0 3.0 0.00 0.00 0.03 56 1007.9
20260506003150 52 236 0.0 3.0 0.00 0.00 0.03 56 1007.6
20260506003044 52 230 0.0 3.0 0.00 0.00 0.03 55 1007.6
20260506002939 52 231 0.0 3.0 0.00 0.00 0.03 55 1007.6
20260506002834 52 215 2.0 3.0 0.00 0.00 0.03 55 1007.6
20260506002744 52 244 2.0 3.0 0.00 0.00 0.03 55 1007.6
20260506002728 52 256 2.0 3.0 0.00 0.00 0.03 55 1007.6
20260506002622 52 252 2.0 3.0 0.00 0.00 0.03 55 1007.6
20260506002516 52 262 1.0 2.0 0.00 0.00 0.03 56 1007.9
20260506002411 52 222 2.0 2.0 0.00 0.00 0.03 56 1007.6
20260506002306 52 244 2.0 2.0 0.00 0.00 0.03 56 1007.6
20260506002239 52 203 1.0 2.0 0.00 0.00 0.03 58 1007.6
20260506002159 52 208 1.0 2.0 0.00 0.00 0.03 58 1007.6
20260506002053 52 222 0.0 2.0 0.00 0.00 0.03 57 1007.6
20260506001948 52 267 2.0 2.0 0.00 0.00 0.03 56 1007.6
20260506001843 52 202 1.0 4.0 0.00 0.00 0.03 57 1007.6
20260506001737 52 187 1.0 4.0 0.00 0.00 0.03 57 1007.9
20260506001631 52 267 1.0 4.0 0.00 0.00 0.03 58 1007.6
20260506001525 52 251 0.0 4.0 0.00 0.00 0.03 57 1007.6
20260506001419 52 151 0.0 4.0 0.00 0.00 0.03 59 1007.6
20260506001313 52 242 0.0 4.0 0.00 0.00 0.03 57 1007.6
20260506001224 52 141 1.0 4.0 0.00 0.00 0.03 57 1007.6
20260506001208 52 175 1.0 4.0 0.00 0.00 0.03 58 1007.6
20260506001101 52 232 1.0 4.0 0.00 0.00 0.03 58 1007.6
20260506000955 52 213 2.0 4.0 0.00 0.00 0.03 57 1007.6
20260506000849 52 218 2.0 4.0 0.00 0.00 0.03 57 1007.3
20260506000744 52 234 1.0 3.0 0.00 0.00 0.03 58 1007.6
20260506000718 52 254 0.0 4.0 0.00 0.00 0.03 57 1007.6
20260506000638 52 290 1.0 4.0 0.00 0.00 0.03 56 1007.6
20260506000532 52 246 0.0 4.0 0.00 0.00 0.03 57 1007.6
20260506000427 53 221 0.0 4.0 0.00 0.00 0.03 57 1007.3
20260506000322 53 312 0.0 4.0 0.00 0.00 0.03 57 1007.3
20260506000215 53 285 0.0 4.0 0.00 0.00 0.03 57 1007.3
20260506000114 53 276 1.0 4.0 0.00 0.00 0.03 57 1007.3
20260506000002 53 253 1.0 4.0 0.00 0.00 0.03 56 1007.3
20260505235857 53 249 2.0 4.0 0.00 0.00 0.03 57 1007.3
20260505235751 53 266 2.0 4.0 0.00 0.00 0.03 57 1007.6
20260505235702 53 242 1.0 4.0 0.00 0.00 0.03 57 1007.3
20260505235646 53 228 2.0 4.0 0.00 0.00 0.03 57 1007.3
20260505235539 53 223 2.0 4.0 0.00 0.00 0.03 57 1007.3
20260505235432 53 190 3.0 4.0 0.00 0.00 0.03 57 1007.6
20260505235327 53 286 3.0 3.0 0.00 0.00 0.03 60 1007.3
20260505235222 53 224 1.0 3.0 0.00 0.00 0.03 58 1007.3
20260505235155 53 251 2.0 3.0 0.00 0.00 0.03 58 1007.3
20260505235117 53 245 1.0 3.0 0.00 0.00 0.03 59 1007.3
20260505235012 53 221 2.0 4.0 0.00 0.00 0.03 59 1006.9
20260505234905 53 241 1.0 4.0 0.00 0.00 0.03 59 1007.3
20260505234759 53 196 1.0 4.0 0.00 0.00 0.03 58 1007.3
20260505234653 53 232 1.0 4.0 0.00 0.00 0.03 58 1007.3
20260505234547 53 223 3.0 7.0 0.00 0.00 0.03 59 1007.3
20260505234441 53 234 1.0 7.0 0.00 0.00 0.03 60 1007.3
20260505234336 53 221 1.0 7.0 0.00 0.00 0.03 60 1007.3
20260505234230 53 163 0.0 7.0 0.00 0.00 0.03 60 1007.3
20260505234142 53 227 2.0 7.0 0.00 0.00 0.03 59 1007.3
20260505234125 53 250 2.0 7.0 0.00 0.00 0.03 59 1007.3
20260505234019 53 204 1.0 7.0 0.00 0.00 0.03 61 1007.3
20260505233914 53 229 1.0 7.0 0.00 0.00 0.03 62 1007.3
20260505233807 53 292 1.0 7.0 0.00 0.00 0.03 60 1006.9
20260505233703 53 244 2.0 7.0 0.00 0.00 0.03 60 1007.3
20260505233636 53 234 3.0 7.0 0.00 0.00 0.03 59 1007.3
20260505233555 53 244 3.0 6.0 0.00 0.00 0.03 61 1007.3
20260505233345 53 223 2.0 6.0 0.00 0.00 0.03 63 1007.3
20260505233239 53 227 2.0 6.0 0.00 0.00 0.03 63 1006.6
20260505233133 53 221 2.0 6.0 0.00 0.00 0.03 63 1006.9
20260505232922 53 250 3.0 6.0 0.00 0.00 0.03 62 1006.9
20260505232815 53 231 2.0 6.0 0.00 0.00 0.03 63 1007.3
20260505232709 53 252 2.0 6.0 0.00 0.00 0.03 63 1006.9
20260505232621 53 221 1.0 4.0 0.00 0.00 0.03 65 1006.9
20260505232602 53 208 0.0 4.0 0.00 0.00 0.03 65 1006.9
20260505232350 53 233 0.0 4.0 0.00 0.00 0.03 65 1006.9
20260505232245 53 228 0.0 4.0 0.00 0.00 0.03 65 1006.9
20260505232112 53 240 0.0 4.0 0.00 0.00 0.03 64 1006.9
20260505232034 53 217 1.0 4.0 0.00 0.00 0.03 64 1006.9
20260505231928 53 243 0.0 4.0 0.00 0.00 0.03 64 1006.9
20260505231822 53 246 2.0 4.0 0.00 0.00 0.03 63 1006.9
20260505231717 53 287 1.0 4.0 0.00 0.00 0.03 64 1006.9
20260505231609 53 226 3.0 4.0 0.00 0.00 0.03 65 1006.9
20260505231505 53 193 0.0 4.0 0.00 0.00 0.03 66 1006.9
20260505231400 53 165 1.0 4.0 0.00 0.00 0.03 66 1006.9
20260505231253 53 279 2.0 4.0 0.00 0.00 0.03 66 1006.9
20260505231149 53 251 1.0 4.0 0.00 0.00 0.03 66 1006.9
20260505231059 53 259 0.0 4.0 0.00 0.00 0.03 65 1006.9
20260505231043 53 234 0.0 4.0 0.00 0.00 0.03 66 1006.9
20260505230937 53 277 1.0 4.0 0.00 0.00 0.03 66 1006.9
20260505230830 53 229 1.0 6.0 0.00 0.00 0.03 66 1006.9
20260505230725 53 290 2.0 6.0 0.00 0.00 0.03 65 1006.9
20260505230618 53 263 2.0 6.0 0.00 0.00 0.03 65 1006.9
20260505230551 53 259 3.0 6.0 0.00 0.00 0.03 66 1006.9
20260505230513 53 195 1.0 6.0 0.00 0.00 0.03 66 1006.9
20260505230407 53 213 2.0 6.0 0.00 0.00 0.03 67 1007.3
20260505230156 54 239 2.0 6.0 0.00 0.00 0.03 65 1006.9
20260505230101 54 266 0.0 6.0 0.00 0.00 0.03 65 1006.9
20260505225945 54 271 2.0 6.0 0.00 0.00 0.03 65 1007.3
20260505225839 54 250 2.0 6.0 0.00 0.00 0.03 65 1006.9
20260505225732 54 216 2.0 6.0 0.00 0.00 0.03 66 1007.3
20260505225628 54 233 3.0 6.0 0.00 0.00 0.03 64 1007.3
20260505225537 54 264 2.0 6.0 0.00 0.00 0.03 63 1007.3
20260505225519 54 224 1.0 6.0 0.00 0.00 0.03 63 1007.3
20260505225414 54 254 0.0 6.0 0.00 0.00 0.03 64 1007.3
20260505225308 54 221 1.0 6.0 0.00 0.00 0.03 63 1006.9
20260505225203 54 235 2.0 6.0 0.00 0.00 0.03 63 1006.9
20260505225030 54 233 3.0 6.0 0.00 0.00 0.03 62 1006.9
20260505224952 54 193 2.0 3.0 0.00 0.00 0.03 62 1006.9
20260505224846 54 298 2.0 3.0 0.00 0.00 0.03 61 1007.3
20260505224741 54 212 0.0 3.0 0.00 0.00 0.03 60 1007.3
20260505224634 54 254 1.0 3.0 0.00 0.00 0.03 60 1007.3
20260505224529 54 260 1.0 6.0 0.00 0.00 0.03 60 1007.3
20260505224422 54 274 3.0 6.0 0.00 0.00 0.03 60 1007.3
20260505224317 54 187 2.0 6.0 0.00 0.00 0.03 60 1007.6
20260505224212 54 232 2.0 6.0 0.00 0.00 0.03 59 1007.3
20260505224106 54 244 2.0 6.0 0.00 0.00 0.03 60 1007.3
20260505224017 54 229 1.0 6.0 0.00 0.00 0.03 59 1007.3
20260505224001 54 240 0.0 6.0 0.00 0.00 0.03 59 1007.3
20260505223855 54 279 2.0 6.0 0.00 0.00 0.03 59 1007.3
20260505223749 54 270 0.0 6.0 0.00 0.00 0.03 60 1007.3
20260505223643 54 320 1.0 6.0 0.00 0.00 0.03 59 1007.3
20260505223537 54 266 4.0 6.0 0.00 0.00 0.03 58 1007.3
20260505223511 54 290 0.0 6.0 0.00 0.00 0.03 59 1007.3
20260505223431 54 260 4.0 6.0 0.00 0.00 0.03 59 1007.3
20260505223326 54 254 2.0 4.0 0.00 0.00 0.03 59 1006.9
20260505223220 54 264 3.0 6.0 0.00 0.00 0.03 59 1007.3
20260505223115 54 244 1.0 6.0 0.00 0.00 0.03 61 1007.3
20260505223009 54 310 2.0 6.0 0.00 0.00 0.03 60 1007.3
20260505222903 54 197 1.0 6.0 0.00 0.00 0.03 60 1007.3
20260505222810 54 237 0.0 6.0 0.00 0.00 0.03 61 1007.3
20260505222652 54 262 3.0 6.0 0.00 0.00 0.03 59 1007.3
20260505222545 54 282 1.0 6.0 0.00 0.00 0.03 59 1007.3
20260505222456 54 225 4.0 6.0 0.00 0.00 0.03 59 1007.3
20260505222438 54 236 0.0 6.0 0.00 0.00 0.03 59 1007.3
20260505222334 54 274 3.0 7.0 0.00 0.00 0.03 59 1007.3
20260505222227 54 294 2.0 7.0 0.00 0.00 0.03 60 1007.3
20260505222122 54 270 0.0 7.0 0.00 0.00 0.03 59 1007.3
20260505222014 54 250 3.0 7.0 0.00 0.00 0.03 60 1007.3
20260505221948 54 195 2.0 7.0 0.00 0.00 0.03 60 1007.3
20260505221908 54 220 2.0 7.0 0.00 0.00 0.03 60 1007.3
20260505221804 54 286 2.0 7.0 0.00 0.00 0.03 59 1007.3
20260505221654 54 213 3.0 7.0 0.00 0.00 0.03 59 1007.3
20260505221549 54 140 2.0 7.0 0.00 0.00 0.03 59 1007.3
20260505221443 54 259 3.0 7.0 0.00 0.00 0.03 59 1006.9
20260505221337 54 214 1.0 7.0 0.00 0.00 0.03 59 1007.3
20260505221232 54 231 3.0 7.0 0.00 0.00 0.03 60 1007.3
20260505221125 54 260 3.0 8.0 0.00 0.00 0.03 59 1007.3
20260505221032 54 265 2.0 8.0 0.00 0.00 0.03 59 1007.3
20260505220931 54 315 0.0 8.0 0.00 0.00 0.03 62 1007.3
20260505220914 54 249 0.0 8.0 0.00 0.00 0.03 60 1007.3
20260505220810 54 152 3.0 8.0 0.00 0.00 0.03 61 1007.3
20260505220801 54 208 4.0 9.0 0.00 0.00 0.03 68 1007.3
20260505220757 54 136 3.0 6.0 0.00 0.00 0.03 73 1007.3
20260505220752 54 255 4.0 6.0 0.00 0.00 0.03 66 1007.3
20260505220748 54 265 0.0 8.0 0.00 0.00 0.03 62 1007.3
20260505220742 54 269 1.0 8.0 0.00 0.00 0.03 61 1006.9
20260505220733 54 189 4.0 8.0 0.00 0.00 0.03 61 1007.3
20260505220724 54 280 1.0 8.0 0.00 0.00 0.03 61 1007.3
20260505220502 54 258 2.0 8.0 0.00 0.00 0.03 62 1007.3
20260505220453 54 263 2.0 8.0 0.00 0.00 0.03 63 1007.3
20260505220225 54 284 3.0 7.0 0.00 0.00 0.03 62 1007.3
20260505220216 54 356 3.0 6.0 0.00 0.00 0.03 64 1007.3
20260505220205 54 241 1.0 6.0 0.00 0.00 0.03 66 1007.3
20260505215941 54 332 1.0 6.0 0.00 0.00 0.03 65 1007.3
20260505215718 54 186 3.0 6.0 0.00 0.00 0.03 66 1007.3
20260505215708 54 250 2.0 6.0 0.00 0.00 0.03 66 1007.3
20260505215659 54 226 1.0 6.0 0.00 0.00 0.03 66 1007.3
20260505215433 54 247 1.0 6.0 0.00 0.00 0.03 68 1007.3
20260505215424 54 333 2.0 6.0 0.00 0.00 0.03 68 1007.3
20260505215204 54 225 2.0 6.0 0.00 0.00 0.03 67 1007.3
20260505215155 54 239 3.0 6.0 0.00 0.00 0.03 68 1007.3
20260505214936 54 179 1.0 7.0 0.00 0.00 0.03 68 1007.3
20260505214925 54 319 1.0 8.0 0.00 0.00 0.03 68 1007.3
20260505214920 54 219 2.0 8.0 0.00 0.00 0.03 68 1007.3
20260505214911 54 1 0.0 9.0 0.00 0.00 0.03 69 1007.3
20260505214649 54 244 0.0 9.0 0.00 0.00 0.03 68 1007.3
20260505214639 54 286 1.0 9.0 0.00 0.00 0.03 68 1007.3
20260505214628 54 208 4.0 9.0 0.00 0.00 0.03 68 1007.3
20260505214408 54 236 2.0 9.0 0.00 0.00 0.03 68 1007.3
20260505214359 54 256 4.0 9.0 0.00 0.00 0.03 68 1007.3
20260505214135 54 278 2.0 9.0 0.00 0.00 0.03 68 1007.3
20260505214126 54 203 5.0 9.0 0.00 0.00 0.03 69 1007.3
20260505213856 54 236 5.0 9.0 0.00 0.00 0.03 68 1007.3
20260505213847 54 241 4.0 6.0 0.00 0.00 0.03 70 1007.3
20260505213624 54 239 3.0 6.0 0.00 0.00 0.03 71 1006.9
20260505213614 54 232 2.0 6.0 0.00 0.00 0.03 72 1007.3
20260505213605 54 205 3.0 6.0 0.00 0.00 0.03 72 1007.3
20260505213307 54 320 3.0 6.0 0.00 0.00 0.03 73 1006.9
20260505213202 54 222 2.0 3.0 0.00 0.00 0.03 74 1007.3
20260505213055 54 222 2.0 3.0 0.00 0.00 0.03 74 1006.9
20260505213003 54 221 3.0 3.0 0.00 0.00 0.03 74 1006.9
20260505212843 54 227 1.0 3.0 0.00 0.00 0.03 75 1007.3
20260505212738 54 228 1.0 3.0 0.00 0.00 0.03 75 1007.3
20260505212633 54 188 0.0 3.0 0.00 0.00 0.03 75 1006.9
20260505212526 54 245 2.0 3.0 0.00 0.00 0.03 75 1006.9
20260505212421 54 246 2.0 3.0 0.00 0.00 0.03 75 1006.9
20260505212333 54 240 1.0 3.0 0.00 0.00 0.03 76 1007.3
20260505212315 54 273 1.0 3.0 0.00 0.00 0.03 76 1007.3
20260505212209 54 266 2.0 3.0 0.00 0.00 0.03 76 1007.3
20260505212103 54 249 1.0 3.0 0.00 0.00 0.03 76 1006.9
20260505211958 53 250 0.0 3.0 0.00 0.00 0.03 76 1006.9
20260505211852 53 230 1.0 3.0 0.00 0.00 0.03 77 1007.3
20260505211825 53 213 1.0 3.0 0.00 0.00 0.03 77 1007.3
20260505211747 53 240 0.0 4.0 0.00 0.00 0.03 77 1007.3
20260505211653 53 166 2.0 4.0 0.00 0.00 0.03 76 1007.3
20260505211535 53 153 3.0 4.0 0.00 0.00 0.03 77 1007.3
20260505211429 53 229 1.0 6.0 0.00 0.00 0.03 78 1007.3
20260505211322 53 244 0.0 6.0 0.00 0.00 0.03 77 1007.3
20260505211217 53 231 1.0 6.0 0.00 0.00 0.03 77 1007.3
20260505211124 53 202 0.0 6.0 0.00 0.00 0.03 78 1007.3
20260505211005 53 225 1.0 6.0 0.00 0.00 0.03 78 1007.3
20260505210859 53 240 1.0 6.0 0.00 0.00 0.03 77 1007.3
20260505210810 53 207 2.0 8.0 0.00 0.00 0.03 77 1007.3
20260505210753 53 236 4.0 8.0 0.00 0.00 0.03 77 1007.3
20260505210648 53 213 2.0 8.0 0.00 0.00 0.03 78 1007.3
20260505210542 53 260 3.0 8.0 0.00 0.00 0.03 77 1007.3
20260505210437 53 191 4.0 8.0 0.00 0.00 0.03 77 1007.3
20260505210331 53 241 2.0 8.0 0.00 0.00 0.03 77 1007.3
20260505210304 53 250 2.0 8.0 0.00 0.00 0.03 77 1007.3
20260505210225 53 233 4.0 8.0 0.00 0.00 0.03 77 1006.9
20260505210120 53 224 3.0 8.0 0.00 0.00 0.03 77 1007.3
20260505210014 53 250 2.0 8.0 0.00 0.00 0.03 76 1007.3
20260505205909 53 219 3.0 8.0 0.00 0.00 0.03 78 1007.3
20260505205802 53 254 1.0 8.0 0.00 0.00 0.03 77 1007.3
20260505205657 53 237 3.0 8.0 0.00 0.00 0.03 77 1007.3
20260505205551 53 194 7.0 8.0 0.00 0.00 0.03 76 1006.9
20260505205446 53 164 5.0 7.0 0.00 0.00 0.03 76 1007.3
20260505205340 53 244 3.0 7.0 0.00 0.00 0.03 76 1007.3
20260505205251 53 134 4.0 7.0 0.00 0.00 0.03 76 1007.3
20260505205235 53 243 3.0 7.0 0.00 0.00 0.03 77 1007.3
20260505205130 53 222 4.0 7.0 0.00 0.00 0.03 77 1007.6
20260505205023 53 200 4.0 7.0 0.00 0.00 0.03 76 1007.3
20260505204919 53 207 4.0 7.0 0.00 0.00 0.03 76 1007.3
20260505204813 53 223 4.0 7.0 0.00 0.00 0.03 76 1007.3
20260505204746 53 201 5.0 7.0 0.00 0.00 0.03 76 1007.3
20260505204707 53 196 2.0 8.0 0.00 0.00 0.03 77 1007.3
20260505204602 53 224 3.0 8.0 0.00 0.00 0.03 77 1007.3
20260505204457 53 203 2.0 8.0 0.00 0.00 0.03 76 1007.3
20260505204352 53 225 4.0 8.0 0.00 0.00 0.03 77 1007.3
20260505204247 53 218 2.0 8.0 0.00 0.00 0.03 77 1007.3
20260505204140 53 214 1.0 8.0 0.00 0.00 0.03 77 1007.3
20260505204035 53 219 3.0 8.0 0.00 0.00 0.03 77 1007.3
20260505204009 53 174 2.0 7.0 0.00 0.00 0.03 77 1007.3
20260505204005 53 215 2.0 8.0 0.00 0.00 0.03 77 1006.9
20260505203956 53 214 4.0 8.0 0.00 0.00 0.03 77 1007.3
20260505203717 53 156 2.0 7.0 0.00 0.00 0.03 76 1007.3
20260505203612 53 181 2.0 7.0 0.00 0.00 0.03 76 1007.3
20260505203507 53 168 2.0 7.0 0.00 0.00 0.03 76 1007.3
20260505203401 53 158 1.0 7.0 0.00 0.00 0.03 77 1007.3
20260505203256 53 193 1.0 7.0 0.00 0.00 0.03 77 1007.3
20260505203230 53 223 3.0 7.0 0.00 0.00 0.03 76 1007.3
20260505203151 53 255 5.0 7.0 0.00 0.00 0.03 77 1007.3
20260505203043 53 177 1.0 6.0 0.00 0.00 0.03 77 1007.3
20260505202938 53 228 3.0 6.0 0.00 0.00 0.03 76 1007.3
20260505202845 53 240 2.0 6.0 0.00 0.00 0.03 77 1007.3
20260505202727 53 193 1.0 8.0 0.00 0.00 0.03 77 1007.3
20260505202622 53 127 0.0 8.0 0.00 0.00 0.03 77 1007.3
20260505202516 53 242 2.0 8.0 0.00 0.00 0.03 77 1007.3
20260505202410 53 240 2.0 8.0 0.00 0.00 0.03 78 1007.3
20260505202307 53 218 3.0 8.0 0.00 0.00 0.03 78 1007.3
20260505202217 53 202 2.0 8.0 0.00 0.00 0.03 78 1006.9
20260505202200 53 220 1.0 8.0 0.00 0.00 0.03 78 1006.9
20260505202054 53 205 3.0 8.0 0.00 0.00 0.03 78 1006.9
20260505201949 52 97 3.0 8.0 0.00 0.00 0.03 78 1006.9
20260505201843 52 199 4.0 9.0 0.00 0.00 0.03 78 1006.9
20260505201738 53 183 3.0 9.0 0.00 0.00 0.03 78 1007.3
20260505201711 53 226 4.0 9.0 0.00 0.00 0.03 78 1007.3
20260505201632 53 189 6.0 9.0 0.00 0.00 0.03 78 1007.3
20260505201526 53 216 2.0 10.0 0.00 0.00 0.03 79 1007.3
20260505201421 53 220 4.0 10.0 0.00 0.00 0.03 79 1007.3
20260505201316 53 237 4.0 10.0 0.00 0.00 0.03 79 1007.3
20260505201210 53 164 1.0 10.0 0.00 0.00 0.03 79 1007.3
20260505201104 53 159 4.0 10.0 0.00 0.00 0.03 79 1007.3
20260505200959 53 210 4.0 10.0 0.00 0.00 0.03 78 1007.3
20260505200853 53 228 3.0 10.0 0.00 0.00 0.03 79 1007.6
20260505200748 53 211 5.0 10.0 0.00 0.00 0.03 79 1007.3
20260505200659 53 213 4.0 10.0 0.00 0.00 0.03 79 1007.3
20260505200641 53 226 3.0 10.0 0.00 0.00 0.03 79 1007.3
20260505200536 53 222 2.0 8.0 0.00 0.00 0.03 79 1007.3
20260505200430 53 233 2.0 8.0 0.00 0.00 0.03 79 1007.3
20260505200325 53 222 2.0 8.0 0.00 0.00 0.03 80 1007.3
20260505200219 53 212 1.0 8.0 0.00 0.00 0.03 80 1006.9
20260505200153 53 215 3.0 8.0 0.00 0.00 0.03 80 1006.9
20260505200116 53 202 2.0 8.0 0.00 0.00 0.03 80 1007.3
20260505200009 53 211 6.0 8.0 0.00 0.00 0.03 79 1007.3
20260505195903 53 196 2.0 8.0 0.00 0.00 0.03 79 1007.3
20260505195756 52 208 1.0 8.0 0.00 0.00 0.03 80 1007.3
20260505195651 52 165 2.0 8.0 0.00 0.00 0.03 80 1007.3
20260505195546 52 119 2.0 8.0 0.00 0.00 0.03 80 1007.3
20260505195441 52 146 2.0 8.0 0.00 0.00 0.03 80 1007.3
20260505195336 52 193 3.0 8.0 0.00 0.00 0.03 80 1007.3
20260505195230 52 206 5.0 9.0 0.00 0.00 0.03 80 1007.3
20260505195142 52 191 4.0 9.0 0.00 0.00 0.03 79 1007.3
20260505195124 52 171 6.0 9.0 0.00 0.00 0.03 79 1007.3
20260505195019 52 206 2.0 9.0 0.00 0.00 0.03 80 1007.3
20260505194913 52 173 3.0 9.0 0.00 0.00 0.03 80 1007.3
20260505194808 52 193 2.0 9.0 0.00 0.00 0.03 80 1007.3
20260505194702 52 205 3.0 9.0 0.00 0.00 0.03 80 1007.3
20260505194636 52 205 4.0 9.0 0.00 0.00 0.03 80 1007.3
20260505194557 52 209 3.0 9.0 0.00 0.00 0.03 80 1007.3
20260505194452 52 206 4.0 9.0 0.00 0.00 0.03 80 1007.3
20260505194347 52 213 6.0 9.0 0.00 0.00 0.03 79 1007.3
20260505194241 52 250 5.0 9.0 0.00 0.00 0.03 80 1007.3
20260505194135 52 228 4.0 9.0 0.00 0.00 0.03 80 1007.3
20260505194031 52 209 4.0 9.0 0.00 0.00 0.03 80 1007.3
20260505193925 53 221 8.0 9.0 0.00 0.00 0.03 80 1007.3
20260505193819 53 237 4.0 9.0 0.00 0.00 0.03 80 1007.3
20260505193714 52 115 1.0 9.0 0.00 0.00 0.03 81 1007.3
20260505193625 52 236 2.0 9.0 0.00 0.00 0.03 81 1007.3
20260505193610 52 165 1.0 9.0 0.00 0.00 0.03 81 1007.3
20260505193500 52 186 3.0 9.0 0.00 0.00 0.03 81 1007.3
20260505193356 52 179 0.0 9.0 0.00 0.00 0.03 81 1007.3
20260505193249 52 215 3.0 9.0 0.00 0.00 0.03 81 1007.3
20260505193144 52 180 4.0 9.0 0.00 0.00 0.03 81 1007.3
20260505193118 52 194 3.0 9.0 0.00 0.00 0.03 81 1007.6
20260505193037 52 224 5.0 9.0 0.00 0.00 0.03 81 1007.6
20260505192932 52 179 3.0 7.0 0.00 0.00 0.03 81 1007.3
20260505192827 53 157 2.0 8.0 0.00 0.00 0.03 81 1007.3
20260505192721 53 213 2.0 9.0 0.00 0.00 0.03 81 1007.3
20260505192615 53 117 1.0 9.0 0.00 0.00 0.03 81 1007.3
20260505192511 53 201 4.0 9.0 0.00 0.00 0.03 81 1007.6
20260505192405 53 223 1.0 9.0 0.00 0.00 0.03 81 1007.3
20260505192259 53 213 4.0 9.0 0.00 0.00 0.03 81 1007.3
20260505192154 53 212 4.0 9.0 0.00 0.00 0.03 81 1007.6
20260505192106 53 198 5.0 9.0 0.00 0.00 0.03 80 1007.3
20260505192049 53 210 6.0 9.0 0.00 0.00 0.03 80 1007.3
20260505191943 53 216 2.0 9.0 0.00 0.00 0.03 80 1007.3
20260505191838 53 186 3.0 9.0 0.00 0.00 0.03 80 1007.6
20260505191732 53 196 2.0 7.0 0.00 0.00 0.03 81 1007.3
20260505191627 53 212 5.0 7.0 0.00 0.00 0.03 80 1007.3
20260505191600 53 175 4.0 7.0 0.00 0.00 0.03 80 1007.3
20260505191523 53 173 3.0 7.0 0.00 0.00 0.03 80 1007.3
20260505191415 53 213 2.0 7.0 0.00 0.00 0.03 80 1007.3
20260505191311 53 242 4.0 7.0 0.00 0.00 0.03 80 1007.6
20260505191217 53 153 1.0 7.0 0.00 0.00 0.03 80 1007.3
20260505191059 53 187 3.0 7.0 0.00 0.00 0.03 80 1007.6
20260505190954 53 185 2.0 4.0 0.00 0.00 0.03 80 1007.6
20260505190849 53 218 1.0 4.0 0.00 0.00 0.03 80 1007.3
20260505190744 53 209 2.0 4.0 0.00 0.00 0.03 80 1007.6
20260505190638 53 232 3.0 6.0 0.00 0.00 0.03 80 1007.6
20260505190547 53 185 3.0 6.0 0.00 0.00 0.03 80 1007.6
20260505190530 53 198 4.0 6.0 0.00 0.00 0.03 80 1007.6
20260505190425 53 209 1.0 7.0 0.00 0.00 0.03 80 1007.6
20260505190319 53 184 1.0 7.0 0.00 0.00 0.03 81 1007.6
20260505190214 53 170 1.0 7.0 0.00 0.00 0.03 80 1007.3
20260505190108 53 114 1.0 8.0 0.00 0.00 0.03 81 1007.3
20260505190042 53 149 1.0 8.0 0.00 0.00 0.03 81 1007.3
20260505190004 53 206 2.0 8.0 0.00 0.00 0.03 81 1007.3
20260505185857 53 185 2.0 8.0 0.00 0.00 0.03 81 1007.3
20260505185752 53 201 4.0 8.0 0.00 0.00 0.03 81 1007.3
20260505185647 52 195 2.0 8.0 0.00 0.00 0.03 81 1007.3
20260505185540 52 184 5.0 9.0 0.00 0.00 0.03 81 1007.3
20260505185435 52 199 3.0 9.0 0.00 0.00 0.03 81 1007.3
20260505185331 52 220 3.0 9.0 0.00 0.00 0.03 81 1007.3